| time (UTC) | temp C | wind direction | speed KPH | gust KPH | rain 1hr cm | rain 24hr cm | rain mn cm | humidity % | barometer mb |
| 20260902233001 | 17 | 202 | 8.0 | 0.0 | 0.00 | 0.00 | 0.00 | 84 | 1061.1 |
| 20260902232839 | 17 | 180 | 8.0 | 0.0 | 0.00 | 0.00 | 0.00 | 84 | 1061.1 |
| 20260902232734 | 17 | 225 | 0.0 | 0.0 | 0.00 | 0.00 | 0.00 | 84 | 1061.1 |
| 20260902232628 | 17 | 202 | 0.0 | 0.0 | 0.00 | 0.00 | 0.00 | 84 | 1061.1 |
| 20260902232515 | 17 | 202 | 9.7 | 0.0 | 0.00 | 0.00 | 0.00 | 84 | 1061.1 |
| 20260902232410 | 17 | 180 | 9.7 | 0.0 | 0.00 | 0.00 | 0.00 | 84 | 1061.1 |
| 20260902232256 | 17 | 180 | 8.0 | 0.0 | 0.00 | 0.00 | 0.00 | 84 | 1061.2 |
| 20260902232143 | 17 | 225 | 19.3 | 0.0 | 0.00 | 0.00 | 0.00 | 84 | 1061.1 |
| 20260902232038 | 17 | 180 | 3.2 | 0.0 | 0.00 | 0.00 | 0.00 | 84 | 1061.1 |
| 20260902231924 | 17 | 270 | 0.0 | 0.0 | 0.00 | 0.00 | 0.00 | 84 | 1061.1 |
| 20260902231801 | 17 | 202 | 3.2 | 0.0 | 0.00 | 0.00 | 0.00 | 84 | 1061.2 |
| 20260902231648 | 17 | 157 | 6.4 | 0.0 | 0.00 | 0.00 | 0.00 | 84 | 1061.2 |
| 20260902231533 | 17 | 180 | 8.0 | 0.0 | 0.00 | 0.00 | 0.00 | 84 | 1061.2 |
| 20260902231403 | 17 | 225 | 0.0 | 0.0 | 0.00 | 0.00 | 0.00 | 84 | 1061.2 |
| 20260902231249 | 17 | 180 | 9.7 | 0.0 | 0.00 | 0.00 | 0.00 | 84 | 1061.3 |
| 20260902231144 | 17 | 202 | 8.0 | 0.0 | 0.00 | 0.00 | 0.00 | 84 | 1061.2 |
| 20260902231037 | 17 | 270 | 9.7 | 0.0 | 0.00 | 0.00 | 0.00 | 84 | 1061.2 |
| 20260902230932 | 17 | 225 | 8.0 | 0.0 | 0.00 | 0.00 | 0.00 | 84 | 1061.3 |
| 20260902230825 | 17 | 202 | 11.3 | 0.0 | 0.00 | 0.00 | 0.00 | 84 | 1061.2 |
| 20260902230720 | 17 | 202 | 8.0 | 0.0 | 0.00 | 0.00 | 0.00 | 84 | 1061.2 |
| 20260902230614 | 17 | 225 | 4.8 | 0.0 | 0.00 | 0.00 | 0.00 | 84 | 1061.3 |
| 20260902230507 | 17 | 225 | 11.3 | 0.0 | 0.00 | 0.00 | 0.00 | 84 | 1061.3 |
| 20260902230353 | 17 | 202 | 0.0 | 0.0 | 0.00 | 0.00 | 0.00 | 84 | 1061.2 |
| 20260902230231 | 17 | 202 | 9.7 | 0.0 | 0.00 | 0.00 | 0.00 | 84 | 1061.3 |
| 20260902230117 | 17 | 225 | 9.7 | 0.0 | 0.00 | 0.00 | 0.00 | 83 | 1061.3 |
| 20260902230011 | 17 | 180 | 12.9 | 0.0 | 0.00 | 0.00 | 0.00 | 84 | 1061.4 |
| 20260902225905 | 17 | 180 | 0.0 | 0.0 | 0.00 | 0.00 | 0.00 | 84 | 1061.3 |
| 20260902225758 | 17 | 202 | 4.8 | 0.0 | 0.00 | 0.00 | 0.00 | 84 | 1061.5 |
| 20260902225644 | 17 | 180 | 14.5 | 0.0 | 0.00 | 0.00 | 0.00 | 84 | 1061.5 |
| 20260902225529 | 17 | 202 | 0.0 | 0.0 | 0.00 | 0.00 | 0.00 | 83 | 1061.3 |
| 20260902225409 | 17 | 180 | 8.0 | 0.0 | 0.00 | 0.00 | 0.00 | 83 | 1061.5 |
| 20260902225306 | 17 | 202 | 11.3 | 0.0 | 0.00 | 0.00 | 0.00 | 83 | 1061.4 |
| 20260902225158 | 17 | 247 | 6.4 | 0.0 | 0.00 | 0.00 | 0.00 | 83 | 1061.5 |
| 20260902225053 | 17 | 225 | 4.8 | 0.0 | 0.00 | 0.00 | 0.00 | 83 | 1061.6 |
| 20260902224948 | 17 | 180 | 6.4 | 0.0 | 0.00 | 0.00 | 0.00 | 83 | 1061.4 |
| 20260902224825 | 17 | 202 | 8.0 | 0.0 | 0.00 | 0.00 | 0.00 | 83 | 1061.5 |
| 20260902224715 | 17 | 202 | 8.0 | 0.0 | 0.00 | 0.00 | 0.00 | 83 | 1061.6 |
| 20260902224607 | 17 | 180 | 6.4 | 0.0 | 0.00 | 0.00 | 0.00 | 83 | 1061.6 |
| 20260902224454 | 17 | 225 | 9.7 | 0.0 | 0.00 | 0.00 | 0.00 | 83 | 1061.6 |
| 20260902224349 | 17 | 202 | 8.0 | 0.0 | 0.00 | 0.00 | 0.00 | 84 | 1061.6 |
| 20260902224227 | 17 | 225 | 14.5 | 0.0 | 0.00 | 0.00 | 0.00 | 83 | 1061.7 |
| 20260902224121 | 17 | 202 | 0.0 | 0.0 | 0.00 | 0.00 | 0.00 | 83 | 1061.6 |
| 20260902224016 | 17 | 202 | 0.0 | 0.0 | 0.00 | 0.00 | 0.00 | 84 | 1061.7 |
| 20260902223902 | 17 | 180 | 16.1 | 0.0 | 0.00 | 0.00 | 0.00 | 84 | 1061.7 |
| 20260902223748 | 17 | 225 | 3.2 | 0.0 | 0.00 | 0.00 | 0.00 | 84 | 1061.7 |
| 20260902223634 | 17 | 180 | 19.3 | 0.0 | 0.00 | 0.00 | 0.00 | 84 | 1061.7 |
| 20260902223520 | 17 | 157 | 3.2 | 0.0 | 0.00 | 0.00 | 0.00 | 84 | 1061.7 |
| 20260902223406 | 17 | 202 | 8.0 | 0.0 | 0.00 | 0.00 | 0.00 | 84 | 1061.7 |
| 20260902223253 | 17 | 270 | 4.8 | 0.0 | 0.00 | 0.00 | 0.00 | 84 | 1061.8 |
| 20260902223147 | 17 | 270 | 0.0 | 0.0 | 0.00 | 0.00 | 0.00 | 84 | 1061.8 |
| 20260902223040 | 17 | 225 | 11.3 | 0.0 | 0.00 | 0.00 | 0.00 | 84 | 1061.7 |
| 20260902222911 | 17 | 202 | 16.1 | 0.0 | 0.00 | 0.00 | 0.00 | 84 | 1061.7 |
| 20260902222757 | 17 | 225 | 12.9 | 0.0 | 0.00 | 0.00 | 0.00 | 84 | 1061.7 |
| 20260902222634 | 17 | 202 | 12.9 | 0.0 | 0.00 | 0.00 | 0.00 | 84 | 1061.8 |
| 20260902222513 | 17 | 202 | 3.2 | 0.0 | 0.00 | 0.00 | 0.00 | 84 | 1061.7 |
| 20260902222351 | 17 | 225 | 12.9 | 0.0 | 0.00 | 0.00 | 0.00 | 84 | 1061.8 |
| 20260902222236 | 17 | 180 | 8.0 | 0.0 | 0.00 | 0.00 | 0.00 | 84 | 1061.9 |
| 20260902222123 | 17 | 225 | 3.2 | 0.0 | 0.00 | 0.00 | 0.00 | 84 | 1062.0 |
| 20260902222010 | 17 | 202 | 0.0 | 0.0 | 0.00 | 0.00 | 0.00 | 84 | 1061.8 |
| 20260902221849 | 17 | 225 | 12.9 | 0.0 | 0.00 | 0.00 | 0.00 | 84 | 1061.9 |
| 20260902221745 | 17 | 202 | 9.7 | 0.0 | 0.00 | 0.00 | 0.00 | 84 | 1061.9 |
| 20260902221639 | 17 | 247 | 9.7 | 0.0 | 0.00 | 0.00 | 0.00 | 84 | 1062.0 |
| 20260902221525 | 17 | 180 | 9.7 | 0.0 | 0.00 | 0.00 | 0.00 | 84 | 1061.9 |
| 20260902221405 | 17 | 225 | 8.0 | 0.0 | 0.00 | 0.00 | 0.00 | 83 | 1062.0 |
| 20260902221257 | 17 | 202 | 0.0 | 0.0 | 0.00 | 0.00 | 0.00 | 83 | 1062.0 |
| 20260902221136 | 17 | 202 | 4.8 | 0.0 | 0.00 | 0.00 | 0.00 | 83 | 1062.0 |
| 20260902221030 | 17 | 180 | 4.8 | 0.0 | 0.00 | 0.00 | 0.00 | 83 | 1061.9 |
| 20260902220916 | 17 | 202 | 0.0 | 0.0 | 0.00 | 0.00 | 0.00 | 83 | 1061.9 |
| 20260902220804 | 17 | 202 | 6.4 | 0.0 | 0.00 | 0.00 | 0.00 | 83 | 1061.9 |
| 20260902220657 | 17 | 202 | 4.8 | 0.0 | 0.00 | 0.00 | 0.00 | 83 | 1061.9 |
| 20260902220544 | 17 | 202 | 0.0 | 0.0 | 0.00 | 0.00 | 0.00 | 83 | 1061.9 |
| 20260902220431 | 17 | 202 | 4.8 | 0.0 | 0.00 | 0.00 | 0.00 | 84 | 1061.8 |
| 20260902220326 | 17 | 180 | 8.0 | 0.0 | 0.00 | 0.00 | 0.00 | 84 | 1061.9 |
| 20260902220213 | 17 | 180 | 8.0 | 0.0 | 0.00 | 0.00 | 0.00 | 84 | 1062.0 |
| 20260902220101 | 16 | 225 | 0.0 | 0.0 | 0.00 | 0.00 | 0.00 | 84 | 1061.8 |
| 20260902215954 | 16 | 225 | 9.7 | 0.0 | 0.00 | 0.00 | 0.00 | 84 | 1061.8 |
| 20260902215833 | 16 | 202 | 9.7 | 0.0 | 0.00 | 0.00 | 0.00 | 84 | 1061.9 |
| 20260902215712 | 16 | 225 | 11.3 | 0.0 | 0.00 | 0.00 | 0.00 | 84 | 1061.9 |
| 20260902215559 | 16 | 202 | 9.7 | 0.0 | 0.00 | 0.00 | 0.00 | 84 | 1061.9 |
| 20260902215446 | 16 | 202 | 9.7 | 0.0 | 0.00 | 0.00 | 0.00 | 84 | 1062.0 |
| 20260902215341 | 16 | 180 | 0.0 | 0.0 | 0.00 | 0.00 | 0.00 | 84 | 1061.9 |
| 20260902215219 | 16 | 202 | 12.9 | 0.0 | 0.00 | 0.00 | 0.00 | 84 | 1062.0 |
| 20260902215058 | 16 | 180 | 9.7 | 0.0 | 0.00 | 0.00 | 0.00 | 84 | 1062.1 |
| 20260902214939 | 16 | 202 | 3.2 | 0.0 | 0.00 | 0.00 | 0.00 | 84 | 1061.9 |
| 20260902214832 | 16 | 225 | 8.0 | 0.0 | 0.00 | 0.00 | 0.00 | 84 | 1061.9 |
| 20260902214729 | 16 | 202 | 8.0 | 0.0 | 0.00 | 0.00 | 0.00 | 84 | 1061.8 |
| 20260902214621 | 16 | 202 | 6.4 | 0.0 | 0.00 | 0.00 | 0.00 | 84 | 1062.0 |
| 20260902214509 | 16 | 202 | 6.4 | 0.0 | 0.00 | 0.00 | 0.00 | 83 | 1062.0 |
| 20260902214404 | 16 | 180 | 0.0 | 0.0 | 0.00 | 0.00 | 0.00 | 83 | 1061.9 |
| 20260902214253 | 16 | 180 | 3.2 | 0.0 | 0.00 | 0.00 | 0.00 | 83 | 1061.9 |
| 20260902214145 | 16 | 225 | 0.0 | 0.0 | 0.00 | 0.00 | 0.00 | 83 | 1061.9 |
| 20260902214033 | 16 | 180 | 6.4 | 0.0 | 0.00 | 0.00 | 0.00 | 83 | 1062.0 |
| 20260902213920 | 16 | 157 | 9.7 | 0.0 | 0.00 | 0.00 | 0.00 | 83 | 1061.9 |
| 20260902213750 | 16 | 202 | 6.4 | 0.0 | 0.00 | 0.00 | 0.00 | 83 | 1062.1 |
| 20260902213630 | 16 | 202 | 9.7 | 0.0 | 0.00 | 0.00 | 0.00 | 83 | 1062.0 |
| 20260902213523 | 16 | 202 | 6.4 | 0.0 | 0.00 | 0.00 | 0.00 | 82 | 1062.0 |
| 20260902213411 | 16 | 225 | 9.7 | 0.0 | 0.00 | 0.00 | 0.00 | 82 | 1062.0 |
| 20260902213305 | 17 | 202 | 0.0 | 0.0 | 0.00 | 0.00 | 0.00 | 82 | 1062.1 |
| 20260902213145 | 17 | 202 | 11.3 | 0.0 | 0.00 | 0.00 | 0.00 | 82 | 1062.1 |
| 20260902213031 | 16 | 202 | 4.8 | 0.0 | 0.00 | 0.00 | 0.00 | 82 | 1062.0 |
| 20260902212856 | 17 | 202 | 9.7 | 0.0 | 0.00 | 0.00 | 0.00 | 82 | 1062.0 |
| 20260902212749 | 17 | 202 | 0.0 | 0.0 | 0.00 | 0.00 | 0.00 | 82 | 1062.1 |
| 20260902212627 | 17 | 202 | 3.2 | 0.0 | 0.00 | 0.00 | 0.00 | 82 | 1062.0 |
| 20260902212458 | 17 | 202 | 6.4 | 0.0 | 0.00 | 0.00 | 0.00 | 82 | 1062.1 |
| 20260902212353 | 17 | 202 | 6.4 | 0.0 | 0.00 | 0.00 | 0.00 | 82 | 1062.1 |
| 20260902212240 | 17 | 202 | 3.2 | 0.0 | 0.00 | 0.00 | 0.00 | 82 | 1062.1 |
| 20260902212127 | 17 | 225 | 0.0 | 0.0 | 0.00 | 0.00 | 0.00 | 83 | 1062.1 |
| 20260902212014 | 17 | 225 | 3.2 | 0.0 | 0.00 | 0.00 | 0.00 | 83 | 1062.0 |
| 20260902211909 | 17 | 202 | 8.0 | 0.0 | 0.00 | 0.00 | 0.00 | 83 | 1062.1 |
| 20260902211756 | 17 | 180 | 0.0 | 0.0 | 0.00 | 0.00 | 0.00 | 83 | 1062.1 |
| 20260902211649 | 17 | 225 | 8.0 | 0.0 | 0.00 | 0.00 | 0.00 | 83 | 1062.1 |
| 20260902211539 | 17 | 225 | 3.2 | 0.0 | 0.00 | 0.00 | 0.00 | 83 | 1062.1 |
| 20260902211433 | 17 | 202 | 9.7 | 0.0 | 0.00 | 0.00 | 0.00 | 83 | 1062.0 |
| 20260902211327 | 17 | 202 | 8.0 | 0.0 | 0.00 | 0.00 | 0.00 | 83 | 1062.1 |
| 20260902211215 | 17 | 202 | 6.4 | 0.0 | 0.00 | 0.00 | 0.00 | 83 | 1062.2 |
| 20260902211053 | 17 | 202 | 6.4 | 0.0 | 0.00 | 0.00 | 0.00 | 83 | 1062.1 |
| 20260902210940 | 17 | 202 | 9.7 | 0.0 | 0.00 | 0.00 | 0.00 | 83 | 1062.1 |
| 20260902210827 | 17 | 180 | 4.8 | 0.0 | 0.00 | 0.00 | 0.00 | 83 | 1062.0 |
| 20260902210714 | 17 | 180 | 8.0 | 0.0 | 0.00 | 0.00 | 0.00 | 83 | 1062.1 |
| 20260902210601 | 17 | 202 | 6.4 | 0.0 | 0.00 | 0.00 | 0.00 | 83 | 1062.1 |
| 20260902210455 | 17 | 225 | 3.2 | 0.0 | 0.00 | 0.00 | 0.00 | 83 | 1062.1 |
| 20260902210344 | 17 | 180 | 6.4 | 0.0 | 0.00 | 0.00 | 0.00 | 83 | 1062.2 |
| 20260902210229 | 17 | 202 | 0.0 | 0.0 | 0.00 | 0.00 | 0.00 | 83 | 1062.1 |
| 20260902210108 | 17 | 180 | 6.4 | 0.0 | 0.00 | 0.00 | 0.00 | 82 | 1062.1 |
| 20260902205955 | 17 | 202 | 8.0 | 0.0 | 0.00 | 0.00 | 0.00 | 82 | 1062.2 |
| 20260902205834 | 17 | 180 | 0.0 | 0.0 | 0.00 | 0.00 | 0.00 | 82 | 1062.1 |
| 20260902205721 | 17 | 202 | 4.8 | 0.0 | 0.00 | 0.00 | 0.00 | 82 | 1062.2 |
| 20260902205617 | 17 | 202 | 0.0 | 0.0 | 0.00 | 0.00 | 0.00 | 82 | 1062.2 |
| 20260902205510 | 17 | 202 | 0.0 | 0.0 | 0.00 | 0.00 | 0.00 | 82 | 1062.2 |
| 20260902205357 | 17 | 202 | 0.0 | 0.0 | 0.00 | 0.00 | 0.00 | 82 | 1062.2 |
| 20260902205244 | 17 | 202 | 0.0 | 0.0 | 0.00 | 0.00 | 0.00 | 82 | 1062.1 |
| 20260902205134 | 17 | 202 | 0.0 | 0.0 | 0.00 | 0.00 | 0.00 | 82 | 1062.2 |
| 20260902205019 | 17 | 225 | 6.4 | 0.0 | 0.00 | 0.00 | 0.00 | 82 | 1062.1 |
| 20260902204913 | 17 | 180 | 4.8 | 0.0 | 0.00 | 0.00 | 0.00 | 82 | 1062.3 |
| 20260902204751 | 17 | 202 | 0.0 | 0.0 | 0.00 | 0.00 | 0.00 | 82 | 1062.3 |
| 20260902204640 | 17 | 202 | 6.4 | 0.0 | 0.00 | 0.00 | 0.00 | 82 | 1062.3 |
| 20260902204517 | 17 | 180 | 8.0 | 0.0 | 0.00 | 0.00 | 0.00 | 82 | 1062.3 |
| 20260902204359 | 17 | 180 | 4.8 | 0.0 | 0.00 | 0.00 | 0.00 | 82 | 1062.3 |
| 20260902204252 | 17 | 202 | 0.0 | 0.0 | 0.00 | 0.00 | 0.00 | 82 | 1062.3 |
| 20260902204146 | 17 | 202 | 6.4 | 0.0 | 0.00 | 0.00 | 0.00 | 82 | 1062.3 |
| 20260902204033 | 17 | 202 | 0.0 | 0.0 | 0.00 | 0.00 | 0.00 | 82 | 1062.3 |
| 20260902203922 | 17 | 157 | 0.0 | 0.0 | 0.00 | 0.00 | 0.00 | 82 | 1062.3 |
| 20260902203815 | 17 | 225 | 4.8 | 0.0 | 0.00 | 0.00 | 0.00 | 82 | 1062.4 |
| 20260902203701 | 17 | 202 | 0.0 | 0.0 | 0.00 | 0.00 | 0.00 | 82 | 1062.4 |
| 20260902203541 | 17 | 225 | 0.0 | 0.0 | 0.00 | 0.00 | 0.00 | 82 | 1062.3 |
| 20260902203435 | 17 | 202 | 0.0 | 0.0 | 0.00 | 0.00 | 0.00 | 82 | 1062.5 |
| 20260902203314 | 17 | 202 | 0.0 | 0.0 | 0.00 | 0.00 | 0.00 | 82 | 1062.4 |
| 20260902203153 | 17 | 202 | 0.0 | 0.0 | 0.00 | 0.00 | 0.00 | 82 | 1062.4 |
| 20260902203048 | 17 | 180 | 0.0 | 0.0 | 0.00 | 0.00 | 0.00 | 82 | 1062.4 |
| 20260902202918 | 17 | 247 | 0.0 | 0.0 | 0.00 | 0.00 | 0.00 | 82 | 1062.4 |
| 20260902202807 | 17 | 180 | 4.8 | 0.0 | 0.00 | 0.00 | 0.00 | 82 | 1062.5 |
| 20260902202701 | 17 | 180 | 0.0 | 0.0 | 0.00 | 0.00 | 0.00 | 82 | 1062.4 |
| 20260902202555 | 17 | 247 | 0.0 | 0.0 | 0.00 | 0.00 | 0.00 | 82 | 1062.4 |
| 20260902202434 | 17 | 247 | 0.0 | 0.0 | 0.00 | 0.00 | 0.00 | 82 | 1062.4 |
| 20260902202313 | 17 | 270 | 0.0 | 0.0 | 0.00 | 0.00 | 0.00 | 82 | 1062.5 |
| 20260902202152 | 17 | 225 | 0.0 | 0.0 | 0.00 | 0.00 | 0.00 | 82 | 1062.5 |
| 20260902202030 | 17 | 225 | 0.0 | 0.0 | 0.00 | 0.00 | 0.00 | 82 | 1062.5 |
| 20260902201909 | 17 | 225 | 0.0 | 0.0 | 0.00 | 0.00 | 0.00 | 82 | 1062.5 |
| 20260902201748 | 17 | 225 | 0.0 | 0.0 | 0.00 | 0.00 | 0.00 | 82 | 1062.6 |
| 20260902201627 | 17 | 225 | 0.0 | 0.0 | 0.00 | 0.00 | 0.00 | 82 | 1062.5 |
| 20260902201516 | 17 | 247 | 0.0 | 0.0 | 0.00 | 0.00 | 0.00 | 82 | 1062.5 |
| 20260902201408 | 17 | 202 | 3.2 | 0.0 | 0.00 | 0.00 | 0.00 | 82 | 1062.5 |
| 20260902201256 | 17 | 247 | 0.0 | 0.0 | 0.00 | 0.00 | 0.00 | 82 | 1062.6 |
| 20260902201136 | 17 | 270 | 0.0 | 0.0 | 0.00 | 0.00 | 0.00 | 82 | 1062.5 |
| 20260902201032 | 17 | 202 | 0.0 | 0.0 | 0.00 | 0.00 | 0.00 | 82 | 1062.6 |
| 20260902200925 | 17 | 247 | 0.0 | 0.0 | 0.00 | 0.00 | 0.00 | 82 | 1062.5 |
| 20260902200819 | 17 | 247 | 3.2 | 0.0 | 0.00 | 0.00 | 0.00 | 82 | 1062.5 |
| 20260902200658 | 17 | 247 | 0.0 | 0.0 | 0.00 | 0.00 | 0.00 | 82 | 1062.6 |
| 20260902200536 | 17 | 225 | 0.0 | 0.0 | 0.00 | 0.00 | 0.00 | 82 | 1062.6 |
| 20260902200416 | 17 | 247 | 6.4 | 0.0 | 0.00 | 0.00 | 0.00 | 82 | 1062.6 |
| 20260902200309 | 17 | 247 | 3.2 | 0.0 | 0.00 | 0.00 | 0.00 | 82 | 1062.6 |
| 20260902200133 | 17 | 225 | 3.2 | 0.0 | 0.00 | 0.00 | 0.00 | 82 | 1062.7 |
| 20260902200012 | 17 | 225 | 0.0 | 0.0 | 0.00 | 0.00 | 0.00 | 82 | 1062.6 |
| 20260902195842 | 17 | 247 | 0.0 | 0.0 | 0.00 | 0.00 | 0.00 | 82 | 1062.6 |
| 20260902195722 | 17 | 292 | 8.0 | 0.0 | 0.00 | 0.00 | 0.00 | 82 | 1062.7 |
| 20260902195616 | 17 | 225 | 3.2 | 0.0 | 0.00 | 0.00 | 0.00 | 82 | 1062.6 |
| 20260902195358 | 17 | 202 | 6.4 | 0.0 | 0.00 | 0.00 | 0.00 | 82 | 1062.7 |
| 20260902195245 | 17 | 270 | 0.0 | 0.0 | 0.00 | 0.00 | 0.00 | 82 | 1062.6 |
| 20260902195124 | 17 | 247 | 0.0 | 0.0 | 0.00 | 0.00 | 0.00 | 82 | 1062.7 |
| 20260902195013 | 17 | 270 | 0.0 | 0.0 | 0.00 | 0.00 | 0.00 | 82 | 1062.6 |
| 20260902194905 | 17 | 225 | 14.5 | 0.0 | 0.00 | 0.00 | 0.00 | 82 | 1062.7 |
| 20260902194746 | 17 | 247 | 0.0 | 0.0 | 0.00 | 0.00 | 0.00 | 82 | 1062.6 |
| 20260902194639 | 17 | 270 | 0.0 | 0.0 | 0.00 | 0.00 | 0.00 | 82 | 1062.6 |
| 20260902194518 | 17 | 225 | 1.6 | 0.0 | 0.00 | 0.00 | 0.00 | 82 | 1062.6 |
| 20260902194404 | 17 | 270 | 0.0 | 0.0 | 0.00 | 0.00 | 0.00 | 82 | 1062.6 |
| 20260902194252 | 17 | 270 | 3.2 | 0.0 | 0.00 | 0.00 | 0.00 | 82 | 1062.6 |
| 20260902194138 | 17 | 270 | 6.4 | 0.0 | 0.00 | 0.00 | 0.00 | 82 | 1062.6 |
| 20260902194019 | 17 | 270 | 6.4 | 0.0 | 0.00 | 0.00 | 0.00 | 82 | 1062.5 |
| 20260902193912 | 17 | 270 | 4.8 | 0.0 | 0.00 | 0.00 | 0.00 | 82 | 1062.6 |
| 20260902193754 | 17 | 225 | 4.8 | 0.0 | 0.00 | 0.00 | 0.00 | 82 | 1062.6 |
| 20260902193648 | 17 | 247 | 4.8 | 0.0 | 0.00 | 0.00 | 0.00 | 82 | 1062.6 |
| 20260902193541 | 17 | 225 | 0.0 | 0.0 | 0.00 | 0.00 | 0.00 | 82 | 1062.6 |
| 20260902193420 | 17 | 247 | 0.0 | 0.0 | 0.00 | 0.00 | 0.00 | 82 | 1062.6 |
| 20260902193300 | 17 | 247 | 0.0 | 0.0 | 0.00 | 0.00 | 0.00 | 82 | 1062.5 |
| 20260902193154 | 17 | 315 | 4.8 | 0.0 | 0.00 | 0.00 | 0.00 | 82 | 1062.6 |
| 20260902193043 | 17 | 270 | 6.4 | 0.0 | 0.00 | 0.00 | 0.00 | 82 | 1062.5 |
| 20260902192935 | 17 | 270 | 0.0 | 0.0 | 0.00 | 0.00 | 0.00 | 83 | 1062.7 |
| 20260902192806 | 17 | 270 | 0.0 | 0.0 | 0.00 | 0.00 | 0.00 | 83 | 1062.6 |
| 20260902192654 | 17 | 247 | 4.8 | 0.0 | 0.00 | 0.00 | 0.00 | 83 | 1062.6 |
| 20260902192548 | 17 | 270 | 0.0 | 0.0 | 0.00 | 0.00 | 0.00 | 83 | 1062.6 |
| 20260902192426 | 17 | 247 | 0.0 | 0.0 | 0.00 | 0.00 | 0.00 | 83 | 1062.7 |
| 20260902192307 | 17 | 247 | 0.0 | 0.0 | 0.00 | 0.00 | 0.00 | 83 | 1062.7 |
| 20260902192136 | 17 | 247 | 0.0 | 0.0 | 0.00 | 0.00 | 0.00 | 83 | 1062.7 |
| 20260902192023 | 17 | 247 | 0.0 | 0.0 | 0.00 | 0.00 | 0.00 | 83 | 1062.7 |
| 20260902191910 | 17 | 292 | 8.0 | 0.0 | 0.00 | 0.00 | 0.00 | 83 | 1062.7 |
| 20260902191748 | 17 | 225 | 3.2 | 0.0 | 0.00 | 0.00 | 0.00 | 83 | 1062.6 |
| 20260902191637 | 17 | 270 | 8.0 | 0.0 | 0.00 | 0.00 | 0.00 | 83 | 1062.6 |
| 20260902191530 | 17 | 225 | 0.0 | 0.0 | 0.00 | 0.00 | 0.00 | 83 | 1062.7 |
| 20260902191401 | 17 | 270 | 8.0 | 0.0 | 0.00 | 0.00 | 0.00 | 83 | 1062.7 |
| 20260902191242 | 17 | 270 | 6.4 | 0.0 | 0.00 | 0.00 | 0.00 | 83 | 1062.7 |
| 20260902191137 | 17 | 270 | 3.2 | 0.0 | 0.00 | 0.00 | 0.00 | 83 | 1062.7 |
| 20260902191032 | 17 | 270 | 6.4 | 0.0 | 0.00 | 0.00 | 0.00 | 83 | 1062.6 |
| 20260902190925 | 17 | 270 | 0.0 | 0.0 | 0.00 | 0.00 | 0.00 | 83 | 1062.7 |
| 20260902190820 | 17 | 247 | 0.0 | 0.0 | 0.00 | 0.00 | 0.00 | 83 | 1062.7 |
| 20260902190707 | 17 | 247 | 6.4 | 0.0 | 0.00 | 0.00 | 0.00 | 83 | 1062.7 |
| 20260902190556 | 17 | 247 | 0.0 | 0.0 | 0.00 | 0.00 | 0.00 | 83 | 1062.7 |
| 20260902190449 | 17 | 202 | 0.0 | 0.0 | 0.00 | 0.00 | 0.00 | 83 | 1062.7 |
| 20260902190326 | 18 | 270 | 4.8 | 0.0 | 0.00 | 0.00 | 0.00 | 83 | 1062.7 |
| 20260902190206 | 18 | 247 | 6.4 | 0.0 | 0.00 | 0.00 | 0.00 | 83 | 1062.7 |
| 20260902190053 | 18 | 247 | 9.7 | 0.0 | 0.00 | 0.00 | 0.00 | 83 | 1062.8 |
| 20260902185941 | 18 | 270 | 8.0 | 0.0 | 0.00 | 0.00 | 0.00 | 83 | 1062.8 |
| 20260902185837 | 18 | 270 | 6.4 | 0.0 | 0.00 | 0.00 | 0.00 | 83 | 1062.7 |
| 20260902185724 | 18 | 315 | 11.3 | 0.0 | 0.00 | 0.00 | 0.00 | 83 | 1062.8 |
| 20260902185616 | 18 | 270 | 6.4 | 0.0 | 0.00 | 0.00 | 0.00 | 83 | 1062.8 |
| 20260902185455 | 18 | 270 | 3.2 | 0.0 | 0.00 | 0.00 | 0.00 | 83 | 1062.8 |
| 20260902185336 | 18 | 270 | 9.7 | 0.0 | 0.00 | 0.00 | 0.00 | 83 | 1062.8 |
| 20260902185231 | 18 | 270 | 8.0 | 0.0 | 0.00 | 0.00 | 0.00 | 83 | 1062.8 |
| 20260902185117 | 18 | 270 | 8.0 | 0.0 | 0.00 | 0.00 | 0.00 | 83 | 1062.8 |
| 20260902185003 | 18 | 270 | 9.7 | 0.0 | 0.00 | 0.00 | 0.00 | 83 | 1062.8 |
| 20260902184842 | 18 | 270 | 0.0 | 0.0 | 0.00 | 0.00 | 0.00 | 83 | 1062.8 |
| 20260902184737 | 18 | 247 | 8.0 | 0.0 | 0.00 | 0.00 | 0.00 | 83 | 1062.7 |
| 20260902184623 | 18 | 270 | 8.0 | 0.0 | 0.00 | 0.00 | 0.00 | 83 | 1062.8 |
| 20260902184502 | 18 | 270 | 0.0 | 0.0 | 0.00 | 0.00 | 0.00 | 83 | 1062.7 |
| 20260902184342 | 18 | 247 | 8.0 | 0.0 | 0.00 | 0.00 | 0.00 | 83 | 1062.8 |
| 20260902184227 | 18 | 270 | 8.0 | 0.0 | 0.00 | 0.00 | 0.00 | 83 | 1062.7 |
| 20260902184109 | 18 | 292 | 4.8 | 0.0 | 0.00 | 0.00 | 0.00 | 83 | 1062.7 |
| 20260902184004 | 18 | 270 | 0.0 | 0.0 | 0.00 | 0.00 | 0.00 | 83 | 1062.8 |
| 20260902183858 | 18 | 292 | 6.4 | 0.0 | 0.00 | 0.00 | 0.00 | 83 | 1062.8 |
| 20260902183754 | 18 | 247 | 6.4 | 0.0 | 0.00 | 0.00 | 0.00 | 83 | 1062.8 |
| 20260902183638 | 18 | 270 | 3.2 | 0.0 | 0.00 | 0.00 | 0.00 | 83 | 1062.8 |
| 20260902183527 | 18 | 292 | 0.0 | 0.0 | 0.00 | 0.00 | 0.00 | 83 | 1062.8 |
| 20260902183420 | 18 | 315 | 9.7 | 0.0 | 0.00 | 0.00 | 0.00 | 83 | 1062.8 |
| 20260902183301 | 18 | 292 | 9.7 | 0.0 | 0.00 | 0.00 | 0.00 | 83 | 1062.8 |
| 20260902183146 | 18 | 292 | 9.7 | 0.0 | 0.00 | 0.00 | 0.00 | 83 | 1062.9 |
| 20260902183033 | 18 | 270 | 3.2 | 0.0 | 0.00 | 0.00 | 0.00 | 83 | 1063.0 |
| 20260902182912 | 18 | 270 | 0.0 | 0.0 | 0.00 | 0.00 | 0.00 | 83 | 1062.8 |
| 20260902182751 | 18 | 270 | 0.0 | 0.0 | 0.00 | 0.00 | 0.00 | 83 | 1062.8 |
| 20260902182646 | 18 | 292 | 8.0 | 0.0 | 0.00 | 0.00 | 0.00 | 83 | 1062.7 |
| 20260902182540 | 18 | 292 | 3.2 | 0.0 | 0.00 | 0.00 | 0.00 | 82 | 1062.7 |
| 20260902182427 | 18 | 270 | 3.2 | 0.0 | 0.00 | 0.00 | 0.00 | 82 | 1062.6 |
| 20260902182258 | 18 | 270 | 0.0 | 0.0 | 0.00 | 0.00 | 0.00 | 82 | 1062.6 |
| 20260902182141 | 18 | 270 | 0.0 | 0.0 | 0.00 | 0.00 | 0.00 | 82 | 1062.6 |
| 20260902182034 | 18 | 292 | 4.8 | 0.0 | 0.00 | 0.00 | 0.00 | 82 | 1062.5 |
| 20260902181919 | 18 | 270 | 3.2 | 0.0 | 0.00 | 0.00 | 0.00 | 81 | 1062.6 |
| 20260902181805 | 18 | 270 | 0.0 | 0.0 | 0.00 | 0.00 | 0.00 | 81 | 1062.5 |
| 20260902181637 | 18 | 315 | 4.8 | 0.0 | 0.00 | 0.00 | 0.00 | 81 | 1062.6 |
| 20260902181523 | 18 | 225 | 0.0 | 0.0 | 0.00 | 0.00 | 0.00 | 81 | 1062.6 |
| 20260902181402 | 18 | 270 | 0.0 | 0.0 | 0.00 | 0.00 | 0.00 | 81 | 1062.6 |
| 20260902181240 | 18 | 270 | 0.0 | 0.0 | 0.00 | 0.00 | 0.00 | 81 | 1062.6 |
| 20260902181119 | 18 | 270 | 0.0 | 0.0 | 0.00 | 0.00 | 0.00 | 81 | 1062.6 |
| 20260902181000 | 18 | 270 | 1.6 | 0.0 | 0.00 | 0.00 | 0.00 | 81 | 1062.5 |
| 20260902180854 | 18 | 270 | 8.0 | 0.0 | 0.00 | 0.00 | 0.00 | 80 | 1062.5 |
| 20260902180748 | 18 | 270 | 0.0 | 0.0 | 0.00 | 0.00 | 0.00 | 80 | 1062.4 |
| 20260902180634 | 18 | 270 | 12.9 | 0.0 | 0.00 | 0.00 | 0.00 | 80 | 1062.5 |
| 20260902180514 | 18 | 270 | 6.4 | 0.0 | 0.00 | 0.00 | 0.00 | 80 | 1062.5 |
| 20260902180359 | 18 | 270 | 4.8 | 0.0 | 0.00 | 0.00 | 0.00 | 79 | 1062.5 |
| 20260902180246 | 18 | 270 | 8.0 | 0.0 | 0.00 | 0.00 | 0.00 | 79 | 1062.5 |
| 20260902180132 | 18 | 270 | 0.0 | 0.0 | 0.00 | 0.00 | 0.00 | 79 | 1062.5 |
| 20260902180018 | 18 | 315 | 9.7 | 0.0 | 0.00 | 0.00 | 0.00 | 79 | 1062.5 |
| 20260902175904 | 18 | 292 | 6.4 | 0.0 | 0.00 | 0.00 | 0.00 | 79 | 1062.5 |
| 20260902175744 | 18 | 315 | 11.3 | 0.0 | 0.00 | 0.00 | 0.00 | 78 | 1062.5 |
| 20260902175630 | 18 | 270 | 11.3 | 0.0 | 0.00 | 0.00 | 0.00 | 78 | 1062.5 |
| 20260902175517 | 18 | 292 | 0.0 | 0.0 | 0.00 | 0.00 | 0.00 | 78 | 1062.5 |
| 20260902175403 | 18 | 270 | 4.8 | 0.0 | 0.00 | 0.00 | 0.00 | 78 | 1062.5 |
| 20260902175234 | 18 | 292 | 6.4 | 0.0 | 0.00 | 0.00 | 0.00 | 78 | 1062.5 |
| 20260902175113 | 18 | 292 | 6.4 | 0.0 | 0.00 | 0.00 | 0.00 | 77 | 1062.5 |
| 20260902174944 | 18 | 315 | 9.7 | 0.0 | 0.00 | 0.00 | 0.00 | 77 | 1062.5 |
| 20260902174830 | 18 | 247 | 6.4 | 0.0 | 0.00 | 0.00 | 0.00 | 76 | 1062.6 |
| 20260902174701 | 18 | 292 | 0.0 | 0.0 | 0.00 | 0.00 | 0.00 | 76 | 1062.6 |
| 20260902174549 | 18 | 315 | 11.3 | 0.0 | 0.00 | 0.00 | 0.00 | 76 | 1062.6 |
| 20260902174435 | 18 | 270 | 8.0 | 0.0 | 0.00 | 0.00 | 0.00 | 75 | 1062.6 |
| 20260902174322 | 18 | 292 | 16.1 | 0.0 | 0.00 | 0.00 | 0.00 | 75 | 1062.6 |
| 20260902174209 | 18 | 315 | 8.0 | 0.0 | 0.00 | 0.00 | 0.00 | 74 | 1062.7 |
| 20260902174104 | 18 | 292 | 8.0 | 0.0 | 0.00 | 0.00 | 0.00 | 75 | 1062.7 |
| 20260902173952 | 18 | 247 | 6.4 | 0.0 | 0.00 | 0.00 | 0.00 | 74 | 1062.6 |
| 20260902173846 | 18 | 247 | 9.7 | 0.0 | 0.00 | 0.00 | 0.00 | 74 | 1062.7 |
| 20260902173716 | 18 | 270 | 17.7 | 0.0 | 0.00 | 0.00 | 0.00 | 74 | 1062.7 |
| 20260902173604 | 18 | 292 | 6.4 | 0.0 | 0.00 | 0.00 | 0.00 | 74 | 1062.7 |
| 20260902173458 | 18 | 270 | 6.4 | 0.0 | 0.00 | 0.00 | 0.00 | 74 | 1062.7 |
| 20260902173329 | 18 | 315 | 4.8 | 0.0 | 0.00 | 0.00 | 0.00 | 74 | 1062.6 |
| 20260902173217 | 18 | 247 | 12.9 | 0.0 | 0.00 | 0.00 | 0.00 | 74 | 1062.6 |
| 20260902173110 | 18 | 270 | 6.4 | 0.0 | 0.00 | 0.00 | 0.00 | 74 | 1062.6 |
| 20260902172949 | 18 | 292 | 12.9 | 0.0 | 0.00 | 0.00 | 0.00 | 74 | 1062.6 |
| 20260902172829 | 19 | 225 | 8.0 | 0.0 | 0.00 | 0.00 | 0.00 | 73 | 1062.6 |
| 20260902172716 | 18 | 315 | 9.7 | 0.0 | 0.00 | 0.00 | 0.00 | 73 | 1062.6 |
| 20260902172552 | 18 | 247 | 14.5 | 0.0 | 0.00 | 0.00 | 0.00 | 73 | 1062.6 |
| 20260902172433 | 19 | 270 | 11.3 | 0.0 | 0.00 | 0.00 | 0.00 | 73 | 1062.6 |
| 20260902172325 | 19 | 292 | 17.7 | 0.0 | 0.00 | 0.00 | 0.00 | 73 | 1062.6 |
| 20260902172211 | 19 | 315 | 6.4 | 0.0 | 0.00 | 0.00 | 0.00 | 73 | 1062.6 |
| 20260902172105 | 19 | 292 | 4.8 | 0.0 | 0.00 | 0.00 | 0.00 | 73 | 1062.6 |
| 20260902171952 | 19 | 315 | 8.0 | 0.0 | 0.00 | 0.00 | 0.00 | 73 | 1062.6 |
| 20260902171848 | 19 | 270 | 8.0 | 0.0 | 0.00 | 0.00 | 0.00 | 73 | 1062.6 |
| 20260902171733 | 19 | 247 | 14.5 | 0.0 | 0.00 | 0.00 | 0.00 | 73 | 1062.6 |
| 20260902171627 | 19 | 270 | 11.3 | 0.0 | 0.00 | 0.00 | 0.00 | 73 | 1062.6 |
| 20260902171522 | 19 | 292 | 8.0 | 0.0 | 0.00 | 0.00 | 0.00 | 73 | 1062.6 |
| 20260902171415 | 19 | 315 | 14.5 | 0.0 | 0.00 | 0.00 | 0.00 | 73 | 1062.6 |
| 20260902171301 | 19 | 247 | 4.8 | 0.0 | 0.00 | 0.00 | 0.00 | 73 | 1062.6 |
| 20260902171148 | 19 | 292 | 14.5 | 0.0 | 0.00 | 0.00 | 0.00 | 73 | 1062.6 |
| 20260902171034 | 19 | 292 | 11.3 | 0.0 | 0.00 | 0.00 | 0.00 | 73 | 1062.6 |
| 20260902170915 | 19 | 315 | 6.4 | 0.0 | 0.00 | 0.00 | 0.00 | 72 | 1062.5 |
| 20260902170808 | 19 | 315 | 9.7 | 0.0 | 0.00 | 0.00 | 0.00 | 72 | 1062.5 |
| 20260902170648 | 19 | 292 | 9.7 | 0.0 | 0.00 | 0.00 | 0.00 | 72 | 1062.6 |
| 20260902170542 | 19 | 337 | 11.3 | 0.0 | 0.00 | 0.00 | 0.00 | 72 | 1062.6 |
| 20260902170421 | 19 | 315 | 11.3 | 0.0 | 0.00 | 0.00 | 0.00 | 72 | 1062.6 |
| 20260902170259 | 19 | 247 | 17.7 | 0.0 | 0.00 | 0.00 | 0.00 | 71 | 1062.6 |
| 20260902170146 | 19 | 270 | 0.0 | 0.0 | 0.00 | 0.00 | 0.00 | 71 | 1062.7 |
| 20260902170036 | 19 | 292 | 11.3 | 0.0 | 0.00 | 0.00 | 0.00 | 71 | 1062.7 |
| 20260902165928 | 19 | 315 | 8.0 | 0.0 | 0.00 | 0.00 | 0.00 | 72 | 1062.7 |
| 20260902165815 | 19 | 270 | 9.7 | 0.0 | 0.00 | 0.00 | 0.00 | 73 | 1062.6 |
| 20260902165700 | 19 | 315 | 9.7 | 0.0 | 0.00 | 0.00 | 0.00 | 74 | 1062.6 |
| 20260902165541 | 19 | 270 | 9.7 | 0.0 | 0.00 | 0.00 | 0.00 | 74 | 1062.6 |
| 20260902165436 | 19 | 315 | 6.4 | 0.0 | 0.00 | 0.00 | 0.00 | 74 | 1062.6 |
| 20260902165331 | 20 | 292 | 8.0 | 0.0 | 0.00 | 0.00 | 0.00 | 74 | 1062.6 |
| 20260902165225 | 20 | 270 | 6.4 | 0.0 | 0.00 | 0.00 | 0.00 | 74 | 1062.7 |
| 20260902165111 | 20 | 292 | 12.9 | 0.0 | 0.00 | 0.00 | 0.00 | 74 | 1062.7 |
| 20260902165000 | 20 | 247 | 8.0 | 0.0 | 0.00 | 0.00 | 0.00 | 74 | 1062.6 |
| 20260902164854 | 20 | 292 | 8.0 | 0.0 | 0.00 | 0.00 | 0.00 | 74 | 1062.7 |
| 20260902164742 | 20 | 292 | 4.8 | 0.0 | 0.00 | 0.00 | 0.00 | 73 | 1062.6 |
| 20260902164635 | 20 | 270 | 9.7 | 0.0 | 0.00 | 0.00 | 0.00 | 73 | 1062.7 |
| 20260902164523 | 20 | 247 | 9.7 | 0.0 | 0.00 | 0.00 | 0.00 | 73 | 1062.7 |
| 20260902164407 | 20 | 247 | 4.8 | 0.0 | 0.00 | 0.00 | 0.00 | 73 | 1062.7 |
| 20260902164254 | 20 | 247 | 9.7 | 0.0 | 0.00 | 0.00 | 0.00 | 73 | 1062.7 |
| 20260902164141 | 20 | 292 | 4.8 | 0.0 | 0.00 | 0.00 | 0.00 | 73 | 1062.7 |
| 20260902164037 | 20 | 315 | 8.0 | 0.0 | 0.00 | 0.00 | 0.00 | 72 | 1062.7 |
| 20260902163931 | 20 | 292 | 11.3 | 0.0 | 0.00 | 0.00 | 0.00 | 72 | 1062.8 |
| 20260902163816 | 20 | 292 | 0.0 | 0.0 | 0.00 | 0.00 | 0.00 | 71 | 1062.7 |
| 20260902163706 | 21 | 292 | 6.4 | 0.0 | 0.00 | 0.00 | 0.00 | 71 | 1062.7 |
| 20260902163559 | 21 | 292 | 6.4 | 0.0 | 0.00 | 0.00 | 0.00 | 71 | 1062.8 |
| 20260902163447 | 21 | 247 | 11.3 | 0.0 | 0.00 | 0.00 | 0.00 | 71 | 1062.8 |
| 20260902163342 | 21 | 270 | 6.4 | 0.0 | 0.00 | 0.00 | 0.00 | 71 | 1062.8 |
| 20260902163235 | 21 | 292 | 9.7 | 0.0 | 0.00 | 0.00 | 0.00 | 71 | 1062.8 |
| 20260902163122 | 21 | 292 | 9.7 | 0.0 | 0.00 | 0.00 | 0.00 | 71 | 1062.8 |
| 20260902163000 | 21 | 337 | 9.7 | 0.0 | 0.00 | 0.00 | 0.00 | 71 | 1062.8 |
| 20260902162841 | 21 | 292 | 8.0 | 0.0 | 0.00 | 0.00 | 0.00 | 70 | 1062.8 |
| 20260902162725 | 21 | 315 | 6.4 | 0.0 | 0.00 | 0.00 | 0.00 | 70 | 1062.8 |
| 20260902162612 | 21 | 292 | 4.8 | 0.0 | 0.00 | 0.00 | 0.00 | 70 | 1062.8 |
| 20260902162452 | 21 | 292 | 12.9 | 0.0 | 0.00 | 0.00 | 0.00 | 69 | 1062.8 |
| 20260902162339 | 21 | 292 | 8.0 | 0.0 | 0.00 | 0.00 | 0.00 | 69 | 1062.8 |
| 20260902162225 | 21 | 315 | 6.4 | 0.0 | 0.00 | 0.00 | 0.00 | 69 | 1062.8 |
| 20260902162114 | 21 | 315 | 9.7 | 0.0 | 0.00 | 0.00 | 0.00 | 69 | 1062.7 |
| 20260902161959 | 21 | 315 | 0.0 | 0.0 | 0.00 | 0.00 | 0.00 | 69 | 1062.8 |
| 20260902161845 | 21 | 247 | 9.7 | 0.0 | 0.00 | 0.00 | 0.00 | 68 | 1062.7 |
| 20260902161734 | 22 | 270 | 4.8 | 0.0 | 0.00 | 0.00 | 0.00 | 68 | 1062.8 |
| 20260902161620 | 22 | 292 | 4.8 | 0.0 | 0.00 | 0.00 | 0.00 | 69 | 1062.7 |
| 20260902161507 | 22 | 292 | 16.1 | 0.0 | 0.00 | 0.00 | 0.00 | 69 | 1062.8 |
| 20260902161347 | 22 | 292 | 9.7 | 0.0 | 0.00 | 0.00 | 0.00 | 69 | 1062.7 |
| 20260902161241 | 22 | 292 | 0.0 | 0.0 | 0.00 | 0.00 | 0.00 | 69 | 1062.8 |
| 20260902161135 | 22 | 270 | 6.4 | 0.0 | 0.00 | 0.00 | 0.00 | 69 | 1062.7 |
| 20260902161015 | 22 | 270 | 9.7 | 0.0 | 0.00 | 0.00 | 0.00 | 69 | 1062.8 |
| 20260902160902 | 21 | 270 | 0.0 | 0.0 | 0.00 | 0.00 | 0.00 | 70 | 1062.8 |
| 20260902160740 | 21 | 270 | 6.4 | 0.0 | 0.00 | 0.00 | 0.00 | 69 | 1062.9 |
| 20260902160630 | 21 | 270 | 9.7 | 0.0 | 0.00 | 0.00 | 0.00 | 69 | 1062.8 |
| 20260902160514 | 22 | 270 | 4.8 | 0.0 | 0.00 | 0.00 | 0.00 | 69 | 1062.7 |
| 20260902160353 | 22 | 292 | 9.7 | 0.0 | 0.00 | 0.00 | 0.00 | 68 | 1062.8 |
| 20260902160242 | 22 | 292 | 8.0 | 0.0 | 0.00 | 0.00 | 0.00 | 68 | 1062.7 |
| 20260902160137 | 22 | 292 | 14.5 | 0.0 | 0.00 | 0.00 | 0.00 | 68 | 1062.7 |
| 20260902160032 | 22 | 315 | 9.7 | 0.0 | 0.00 | 0.00 | 0.00 | 68 | 1062.8 |
| 20260902155925 | 22 | 247 | 11.3 | 0.0 | 0.00 | 0.00 | 0.00 | 68 | 1062.7 |
| 20260902155805 | 22 | 270 | 0.0 | 0.0 | 0.00 | 0.00 | 0.00 | 67 | 1062.8 |
| 20260902155654 | 22 | 270 | 0.0 | 0.0 | 0.00 | 0.00 | 0.00 | 67 | 1062.8 |
| 20260902155548 | 22 | 292 | 9.7 | 0.0 | 0.00 | 0.00 | 0.00 | 67 | 1062.7 |
| 20260902155442 | 22 | 270 | 8.0 | 0.0 | 0.00 | 0.00 | 0.00 | 67 | 1062.8 |
| 20260902155323 | 22 | 270 | 0.0 | 0.0 | 0.00 | 0.00 | 0.00 | 66 | 1062.8 |
| 20260902155216 | 22 | 292 | 9.7 | 0.0 | 0.00 | 0.00 | 0.00 | 66 | 1062.8 |
| 20260902155103 | 23 | 270 | 8.0 | 0.0 | 0.00 | 0.00 | 0.00 | 65 | 1062.8 |
| 20260902154958 | 23 | 292 | 8.0 | 0.0 | 0.00 | 0.00 | 0.00 | 65 | 1062.8 |
| 20260902154845 | 23 | 315 | 4.8 | 0.0 | 0.00 | 0.00 | 0.00 | 65 | 1062.8 |
| 20260902154733 | 23 | 292 | 11.3 | 0.0 | 0.00 | 0.00 | 0.00 | 64 | 1062.8 |
| 20260902154618 | 23 | 292 | 11.3 | 0.0 | 0.00 | 0.00 | 0.00 | 63 | 1062.8 |
| 20260902154506 | 23 | 292 | 8.0 | 0.0 | 0.00 | 0.00 | 0.00 | 63 | 1062.9 |
| 20260902154400 | 23 | 292 | 9.7 | 0.0 | 0.00 | 0.00 | 0.00 | 63 | 1062.8 |
| 20260902154239 | 23 | 315 | 6.4 | 0.0 | 0.00 | 0.00 | 0.00 | 63 | 1062.8 |
| 20260902154109 | 23 | 292 | 9.7 | 0.0 | 0.00 | 0.00 | 0.00 | 63 | 1062.7 |
| 20260902153956 | 23 | 337 | 0.0 | 0.0 | 0.00 | 0.00 | 0.00 | 62 | 1062.8 |
| 20260902153844 | 23 | 270 | 8.0 | 0.0 | 0.00 | 0.00 | 0.00 | 62 | 1062.7 |
| 20260902153722 | 24 | 315 | 4.8 | 0.0 | 0.00 | 0.00 | 0.00 | 62 | 1062.8 |
| 20260902153611 | 24 | 270 | 6.4 | 0.0 | 0.00 | 0.00 | 0.00 | 62 | 1062.7 |
| 20260902153456 | 24 | 270 | 14.5 | 0.0 | 0.00 | 0.00 | 0.00 | 62 | 1062.8 |
| 20260902153343 | 24 | 270 | 6.4 | 0.0 | 0.00 | 0.00 | 0.00 | 62 | 1062.8 |
| 20260902153238 | 24 | 270 | 11.3 | 0.0 | 0.00 | 0.00 | 0.00 | 63 | 1062.8 |
| 20260902153116 | 24 | 292 | 0.0 | 0.0 | 0.00 | 0.00 | 0.00 | 63 | 1062.8 |
| 20260902152956 | 24 | 270 | 6.4 | 0.0 | 0.00 | 0.00 | 0.00 | 62 | 1062.8 |
| 20260902152850 | 24 | 292 | 8.0 | 0.0 | 0.00 | 0.00 | 0.00 | 63 | 1062.9 |
| 20260902152729 | 24 | 315 | 0.0 | 0.0 | 0.00 | 0.00 | 0.00 | 63 | 1063.0 |
| 20260902152607 | 24 | 292 | 4.8 | 0.0 | 0.00 | 0.00 | 0.00 | 63 | 1062.9 |
| 20260902152448 | 24 | 315 | 14.5 | 0.0 | 0.00 | 0.00 | 0.00 | 63 | 1063.0 |
| 20260902152343 | 24 | 270 | 8.0 | 0.0 | 0.00 | 0.00 | 0.00 | 64 | 1063.0 |
| 20260902152228 | 24 | 270 | 8.0 | 0.0 | 0.00 | 0.00 | 0.00 | 64 | 1063.0 |
| 20260902152117 | 24 | 292 | 0.0 | 0.0 | 0.00 | 0.00 | 0.00 | 64 | 1062.9 |
| 20260902152011 | 24 | 0 | 8.0 | 0.0 | 0.00 | 0.00 | 0.00 | 64 | 1063.0 |
| 20260902151906 | 24 | 292 | 9.7 | 0.0 | 0.00 | 0.00 | 0.00 | 64 | 1063.0 |
| 20260902151800 | 24 | 315 | 6.4 | 0.0 | 0.00 | 0.00 | 0.00 | 65 | 1063.0 |
| 20260902151639 | 24 | 270 | 4.8 | 0.0 | 0.00 | 0.00 | 0.00 | 64 | 1062.9 |
| 20260902151517 | 24 | 270 | 6.4 | 0.0 | 0.00 | 0.00 | 0.00 | 65 | 1063.0 |
| 20260902151407 | 24 | 315 | 4.8 | 0.0 | 0.00 | 0.00 | 0.00 | 65 | 1063.0 |
| 20260902151300 | 24 | 270 | 11.3 | 0.0 | 0.00 | 0.00 | 0.00 | 66 | 1063.0 |
| 20260902151147 | 23 | 315 | 6.4 | 0.0 | 0.00 | 0.00 | 0.00 | 66 | 1063.0 |
| 20260902151033 | 23 | 292 | 4.8 | 0.0 | 0.00 | 0.00 | 0.00 | 66 | 1063.1 |
| 20260902150921 | 23 | 270 | 4.8 | 0.0 | 0.00 | 0.00 | 0.00 | 66 | 1063.1 |
| 20260902150815 | 23 | 315 | 4.8 | 0.0 | 0.00 | 0.00 | 0.00 | 66 | 1063.1 |
| 20260902150705 | 23 | 247 | 0.0 | 0.0 | 0.00 | 0.00 | 0.00 | 67 | 1063.0 |
| 20260902150557 | 23 | 292 | 12.9 | 0.0 | 0.00 | 0.00 | 0.00 | 68 | 1063.0 |
| 20260902150437 | 23 | 270 | 9.7 | 0.0 | 0.00 | 0.00 | 0.00 | 69 | 1062.9 |
| 20260902150334 | 22 | 270 | 0.0 | 0.0 | 0.00 | 0.00 | 0.00 | 71 | 1063.0 |
| 20260902150219 | 22 | 247 | 0.0 | 0.0 | 0.00 | 0.00 | 0.00 | 71 | 1063.0 |
| 20260902150104 | 22 | 337 | 0.0 | 0.0 | 0.00 | 0.00 | 0.00 | 71 | 1063.0 |
| 20260902145954 | 22 | 270 | 8.0 | 0.0 | 0.00 | 0.00 | 0.00 | 72 | 1063.0 |
| 20260902145849 | 22 | 292 | 0.0 | 0.0 | 0.00 | 0.00 | 0.00 | 72 | 1063.0 |
| 20260902145736 | 22 | 270 | 8.0 | 0.0 | 0.00 | 0.00 | 0.00 | 72 | 1063.0 |
| 20260902145629 | 21 | 270 | 6.4 | 0.0 | 0.00 | 0.00 | 0.00 | 71 | 1063.1 |
| 20260902145524 | 22 | 315 | 11.3 | 0.0 | 0.00 | 0.00 | 0.00 | 71 | 1063.0 |
| 20260902145404 | 22 | 292 | 6.4 | 0.0 | 0.00 | 0.00 | 0.00 | 71 | 1063.1 |
| 20260902145258 | 22 | 270 | 4.8 | 0.0 | 0.00 | 0.00 | 0.00 | 71 | 1063.1 |
| 20260902145145 | 22 | 292 | 6.4 | 0.0 | 0.00 | 0.00 | 0.00 | 71 | 1063.1 |
| 20260902145033 | 22 | 315 | 8.0 | 0.0 | 0.00 | 0.00 | 0.00 | 71 | 1063.1 |
| 20260902144918 | 22 | 270 | 6.4 | 0.0 | 0.00 | 0.00 | 0.00 | 70 | 1063.1 |
| 20260902144757 | 22 | 270 | 8.0 | 0.0 | 0.00 | 0.00 | 0.00 | 70 | 1063.1 |
| 20260902144644 | 22 | 315 | 11.3 | 0.0 | 0.00 | 0.00 | 0.00 | 69 | 1063.1 |
| 20260902144531 | 22 | 292 | 9.7 | 0.0 | 0.00 | 0.00 | 0.00 | 69 | 1063.1 |
| 20260902144409 | 22 | 247 | 12.9 | 0.0 | 0.00 | 0.00 | 0.00 | 69 | 1063.1 |
| 20260902144257 | 22 | 292 | 11.3 | 0.0 | 0.00 | 0.00 | 0.00 | 68 | 1063.2 |
| 20260902144143 | 22 | 270 | 9.7 | 0.0 | 0.00 | 0.00 | 0.00 | 68 | 1063.1 |
| 20260902144016 | 22 | 270 | 8.0 | 0.0 | 0.00 | 0.00 | 0.00 | 67 | 1063.1 |
| 20260902143909 | 23 | 292 | 8.0 | 0.0 | 0.00 | 0.00 | 0.00 | 67 | 1063.1 |
| 20260902143755 | 23 | 270 | 9.7 | 0.0 | 0.00 | 0.00 | 0.00 | 67 | 1063.1 |
| 20260902143634 | 23 | 315 | 6.4 | 0.0 | 0.00 | 0.00 | 0.00 | 67 | 1063.1 |
| 20260902143514 | 23 | 337 | 8.0 | 0.0 | 0.00 | 0.00 | 0.00 | 68 | 1063.0 |
| 20260902143407 | 23 | 292 | 12.9 | 0.0 | 0.00 | 0.00 | 0.00 | 68 | 1063.1 |
| 20260902143247 | 23 | 270 | 9.7 | 0.0 | 0.00 | 0.00 | 0.00 | 69 | 1063.0 |
| 20260902143117 | 22 | 292 | 9.7 | 0.0 | 0.00 | 0.00 | 0.00 | 69 | 1063.0 |
| 20260902142956 | 22 | 315 | 9.7 | 0.0 | 0.00 | 0.00 | 0.00 | 69 | 1063.0 |
| 20260902142843 | 22 | 270 | 11.3 | 0.0 | 0.00 | 0.00 | 0.00 | 69 | 1063.1 |
| 20260902142723 | 22 | 247 | 8.0 | 0.0 | 0.00 | 0.00 | 0.00 | 69 | 1063.1 |
| 20260902142616 | 22 | 270 | 4.8 | 0.0 | 0.00 | 0.00 | 0.00 | 71 | 1062.9 |
| 20260902142456 | 22 | 292 | 9.7 | 0.0 | 0.00 | 0.00 | 0.00 | 71 | 1063.0 |
| 20260902142351 | 22 | 315 | 14.5 | 0.0 | 0.00 | 0.00 | 0.00 | 72 | 1063.0 |
| 20260902142247 | 22 | 270 | 6.4 | 0.0 | 0.00 | 0.00 | 0.00 | 72 | 1063.0 |
| 20260902142141 | 22 | 292 | 12.9 | 0.0 | 0.00 | 0.00 | 0.00 | 72 | 1063.0 |
| 20260902142036 | 22 | 292 | 6.4 | 0.0 | 0.00 | 0.00 | 0.00 | 72 | 1063.0 |
| 20260902141923 | 22 | 247 | 9.7 | 0.0 | 0.00 | 0.00 | 0.00 | 72 | 1062.9 |
| 20260902141817 | 22 | 270 | 3.2 | 0.0 | 0.00 | 0.00 | 0.00 | 73 | 1062.9 |
| 20260902141705 | 22 | 292 | 3.2 | 0.0 | 0.00 | 0.00 | 0.00 | 73 | 1062.9 |
| 20260902141552 | 22 | 270 | 4.8 | 0.0 | 0.00 | 0.00 | 0.00 | 72 | 1062.9 |
| 20260902141438 | 22 | 270 | 6.4 | 0.0 | 0.00 | 0.00 | 0.00 | 72 | 1062.8 |
| 20260902141319 | 22 | 247 | 8.0 | 0.0 | 0.00 | 0.00 | 0.00 | 72 | 1062.9 |
| 20260902141212 | 22 | 292 | 0.0 | 0.0 | 0.00 | 0.00 | 0.00 | 71 | 1062.8 |
| 20260902141101 | 22 | 270 | 8.0 | 0.0 | 0.00 | 0.00 | 0.00 | 71 | 1062.9 |
| 20260902140954 | 22 | 315 | 3.2 | 0.0 | 0.00 | 0.00 | 0.00 | 70 | 1062.8 |
| 20260902140831 | 22 | 292 | 6.4 | 0.0 | 0.00 | 0.00 | 0.00 | 71 | 1062.8 |
| 20260902140713 | 22 | 270 | 0.0 | 0.0 | 0.00 | 0.00 | 0.00 | 70 | 1062.8 |
| 20260902140558 | 22 | 270 | 14.5 | 0.0 | 0.00 | 0.00 | 0.00 | 70 | 1062.8 |
| 20260902140436 | 22 | 270 | 9.7 | 0.0 | 0.00 | 0.00 | 0.00 | 70 | 1062.8 |
| 20260902140315 | 22 | 270 | 9.7 | 0.0 | 0.00 | 0.00 | 0.00 | 70 | 1062.9 |
| 20260902140146 | 22 | 315 | 6.4 | 0.0 | 0.00 | 0.00 | 0.00 | 70 | 1062.9 |
| 20260902140025 | 22 | 225 | 9.7 | 0.0 | 0.00 | 0.00 | 0.00 | 69 | 1062.8 |
| 20260902135903 | 22 | 292 | 6.4 | 0.0 | 0.00 | 0.00 | 0.00 | 69 | 1062.9 |
| 20260902135751 | 23 | 292 | 9.7 | 0.0 | 0.00 | 0.00 | 0.00 | 69 | 1062.8 |
| 20260902135630 | 22 | 337 | 8.0 | 0.0 | 0.00 | 0.00 | 0.00 | 69 | 1062.9 |
| 20260902135516 | 23 | 247 | 8.0 | 0.0 | 0.00 | 0.00 | 0.00 | 69 | 1062.8 |
| 20260902135404 | 23 | 270 | 0.0 | 0.0 | 0.00 | 0.00 | 0.00 | 69 | 1062.8 |
| 20260902135258 | 23 | 247 | 9.7 | 0.0 | 0.00 | 0.00 | 0.00 | 69 | 1062.9 |
| 20260902135145 | 23 | 292 | 3.2 | 0.0 | 0.00 | 0.00 | 0.00 | 69 | 1062.8 |
| 20260902135033 | 23 | 292 | 4.8 | 0.0 | 0.00 | 0.00 | 0.00 | 69 | 1062.9 |
| 20260902134927 | 22 | 247 | 9.7 | 0.0 | 0.00 | 0.00 | 0.00 | 70 | 1062.9 |
| 20260902134806 | 22 | 270 | 0.0 | 0.0 | 0.00 | 0.00 | 0.00 | 70 | 1062.9 |
| 20260902134701 | 22 | 270 | 3.2 | 0.0 | 0.00 | 0.00 | 0.00 | 70 | 1062.9 |
| 20260902134548 | 22 | 292 | 3.2 | 0.0 | 0.00 | 0.00 | 0.00 | 70 | 1062.9 |
| 20260902134419 | 22 | 315 | 8.0 | 0.0 | 0.00 | 0.00 | 0.00 | 70 | 1062.9 |
| 20260902134314 | 22 | 270 | 3.2 | 0.0 | 0.00 | 0.00 | 0.00 | 70 | 1062.9 |
| 20260902134208 | 22 | 247 | 8.0 | 0.0 | 0.00 | 0.00 | 0.00 | 70 | 1062.9 |
| 20260902134047 | 22 | 292 | 9.7 | 0.0 | 0.00 | 0.00 | 0.00 | 69 | 1062.9 |
| 20260902133925 | 22 | 247 | 6.4 | 0.0 | 0.00 | 0.00 | 0.00 | 69 | 1063.0 |
| 20260902133804 | 22 | 270 | 6.4 | 0.0 | 0.00 | 0.00 | 0.00 | 69 | 1062.9 |
| 20260902133646 | 22 | 202 | 17.7 | 0.0 | 0.00 | 0.00 | 0.00 | 70 | 1062.9 |
| 20260902133538 | 22 | 202 | 9.7 | 0.0 | 0.00 | 0.00 | 0.00 | 70 | 1062.9 |
| 20260902133433 | 22 | 180 | 3.2 | 0.0 | 0.00 | 0.00 | 0.00 | 70 | 1063.0 |
| 20260902133320 | 22 | 292 | 9.7 | 0.0 | 0.00 | 0.00 | 0.00 | 70 | 1063.0 |
| 20260902133200 | 22 | 270 | 9.7 | 0.0 | 0.00 | 0.00 | 0.00 | 70 | 1062.9 |
| 20260902133053 | 22 | 247 | 8.0 | 0.0 | 0.00 | 0.00 | 0.00 | 71 | 1063.0 |
| 20260902132941 | 22 | 247 | 4.8 | 0.0 | 0.00 | 0.00 | 0.00 | 71 | 1063.0 |
| 20260902132828 | 22 | 247 | 6.4 | 0.0 | 0.00 | 0.00 | 0.00 | 72 | 1063.1 |
| 20260902132717 | 22 | 247 | 9.7 | 0.0 | 0.00 | 0.00 | 0.00 | 72 | 1063.0 |
| 20260902132611 | 22 | 292 | 0.0 | 0.0 | 0.00 | 0.00 | 0.00 | 71 | 1063.0 |
| 20260902132507 | 22 | 270 | 0.0 | 0.0 | 0.00 | 0.00 | 0.00 | 71 | 1063.0 |
| 20260902132359 | 22 | 270 | 6.4 | 0.0 | 0.00 | 0.00 | 0.00 | 71 | 1063.0 |
| 20260902132246 | 22 | 270 | 4.8 | 0.0 | 0.00 | 0.00 | 0.00 | 71 | 1063.0 |
| 20260902132134 | 22 | 247 | 8.0 | 0.0 | 0.00 | 0.00 | 0.00 | 71 | 1063.0 |
| 20260902132028 | 22 | 315 | 8.0 | 0.0 | 0.00 | 0.00 | 0.00 | 71 | 1063.0 |
| 20260902131915 | 22 | 270 | 6.4 | 0.0 | 0.00 | 0.00 | 0.00 | 71 | 1063.0 |
| 20260902131802 | 22 | 270 | 8.0 | 0.0 | 0.00 | 0.00 | 0.00 | 72 | 1063.0 |
| 20260902131650 | 22 | 180 | 0.0 | 0.0 | 0.00 | 0.00 | 0.00 | 72 | 1063.0 |
| 20260902131546 | 21 | 270 | 6.4 | 0.0 | 0.00 | 0.00 | 0.00 | 72 | 1063.0 |
| 20260902131439 | 21 | 247 | 6.4 | 0.0 | 0.00 | 0.00 | 0.00 | 72 | 1063.0 |
| 20260902131325 | 21 | 247 | 0.0 | 0.0 | 0.00 | 0.00 | 0.00 | 72 | 1063.0 |
| 20260902131213 | 21 | 247 | 3.2 | 0.0 | 0.00 | 0.00 | 0.00 | 72 | 1063.0 |
| 20260902131100 | 21 | 247 | 3.2 | 0.0 | 0.00 | 0.00 | 0.00 | 72 | 1063.0 |
| 20260902130939 | 21 | 180 | 0.0 | 0.0 | 0.00 | 0.00 | 0.00 | 72 | 1063.0 |
| 20260902130833 | 21 | 247 | 12.9 | 0.0 | 0.00 | 0.00 | 0.00 | 72 | 1063.0 |
| 20260902130727 | 21 | 247 | 6.4 | 0.0 | 0.00 | 0.00 | 0.00 | 72 | 1063.0 |
| 20260902130622 | 21 | 270 | 0.0 | 0.0 | 0.00 | 0.00 | 0.00 | 72 | 1063.0 |
| 20260902130516 | 21 | 270 | 4.8 | 0.0 | 0.00 | 0.00 | 0.00 | 72 | 1063.0 |
| 20260902130410 | 21 | 225 | 0.0 | 0.0 | 0.00 | 0.00 | 0.00 | 72 | 1062.9 |
| 20260902130305 | 21 | 247 | 6.4 | 0.0 | 0.00 | 0.00 | 0.00 | 72 | 1062.9 |
| 20260902130144 | 21 | 247 | 8.0 | 0.0 | 0.00 | 0.00 | 0.00 | 72 | 1062.9 |
| 20260902130023 | 21 | 247 | 3.2 | 0.0 | 0.00 | 0.00 | 0.00 | 71 | 1063.0 |
| 20260902125904 | 21 | 180 | 8.0 | 0.0 | 0.00 | 0.00 | 0.00 | 71 | 1062.9 |
| 20260902125758 | 21 | 247 | 0.0 | 0.0 | 0.00 | 0.00 | 0.00 | 70 | 1063.0 |
| 20260902125653 | 21 | 270 | 4.8 | 0.0 | 0.00 | 0.00 | 0.00 | 70 | 1063.0 |
| 20260902125546 | 21 | 225 | 3.2 | 0.0 | 0.00 | 0.00 | 0.00 | 70 | 1063.0 |
| 20260902125433 | 21 | 270 | 16.1 | 0.0 | 0.00 | 0.00 | 0.00 | 69 | 1063.0 |
| 20260902125321 | 21 | 202 | 8.0 | 0.0 | 0.00 | 0.00 | 0.00 | 68 | 1062.9 |
| 20260902125215 | 21 | 180 | 12.9 | 0.0 | 0.00 | 0.00 | 0.00 | 68 | 1062.9 |
| 20260902125111 | 21 | 270 | 0.0 | 0.0 | 0.00 | 0.00 | 0.00 | 68 | 1063.0 |
| 20260902125005 | 21 | 247 | 6.4 | 0.0 | 0.00 | 0.00 | 0.00 | 68 | 1062.9 |
| 20260902124853 | 21 | 180 | 9.7 | 0.0 | 0.00 | 0.00 | 0.00 | 68 | 1062.9 |
| 20260902124746 | 21 | 225 | 4.8 | 0.0 | 0.00 | 0.00 | 0.00 | 68 | 1063.0 |
| 20260902124634 | 21 | 247 | 4.8 | 0.0 | 0.00 | 0.00 | 0.00 | 68 | 1062.9 |
| 20260902124529 | 21 | 270 | 6.4 | 0.0 | 0.00 | 0.00 | 0.00 | 67 | 1063.0 |
| 20260902124408 | 21 | 270 | 0.0 | 0.0 | 0.00 | 0.00 | 0.00 | 67 | 1062.9 |
| 20260902124304 | 21 | 270 | 8.0 | 0.0 | 0.00 | 0.00 | 0.00 | 67 | 1063.0 |
| 20260902124157 | 21 | 247 | 9.7 | 0.0 | 0.00 | 0.00 | 0.00 | 67 | 1063.0 |
| 20260902124044 | 21 | 225 | 9.7 | 0.0 | 0.00 | 0.00 | 0.00 | 67 | 1063.0 |
| 20260902123934 | 21 | 247 | 8.0 | 0.0 | 0.00 | 0.00 | 0.00 | 67 | 1063.0 |
| 20260902123827 | 21 | 225 | 9.7 | 0.0 | 0.00 | 0.00 | 0.00 | 67 | 1063.0 |
| 20260902123659 | 21 | 225 | 4.8 | 0.0 | 0.00 | 0.00 | 0.00 | 67 | 1062.9 |
| 20260902123546 | 21 | 270 | 3.2 | 0.0 | 0.00 | 0.00 | 0.00 | 66 | 1062.9 |
| 20260902123425 | 21 | 270 | 16.1 | 0.0 | 0.00 | 0.00 | 0.00 | 66 | 1063.0 |
| 20260902123305 | 21 | 247 | 0.0 | 0.0 | 0.00 | 0.00 | 0.00 | 67 | 1062.9 |
| 20260902123201 | 21 | 270 | 0.0 | 0.0 | 0.00 | 0.00 | 0.00 | 67 | 1063.0 |
| 20260902123055 | 21 | 225 | 4.8 | 0.0 | 0.00 | 0.00 | 0.00 | 67 | 1062.9 |
| 20260902122942 | 21 | 247 | 4.8 | 0.0 | 0.00 | 0.00 | 0.00 | 68 | 1063.0 |
| 20260902122829 | 21 | 225 | 4.8 | 0.0 | 0.00 | 0.00 | 0.00 | 68 | 1063.0 |
| 20260902122715 | 21 | 180 | 9.7 | 0.0 | 0.00 | 0.00 | 0.00 | 68 | 1062.9 |
| 20260902122603 | 21 | 157 | 6.4 | 0.0 | 0.00 | 0.00 | 0.00 | 69 | 1063.0 |
| 20260902122452 | 21 | 202 | 4.8 | 0.0 | 0.00 | 0.00 | 0.00 | 69 | 1062.9 |
| 20260902122344 | 21 | 225 | 6.4 | 0.0 | 0.00 | 0.00 | 0.00 | 70 | 1062.9 |
| 20260902122232 | 20 | 247 | 8.0 | 0.0 | 0.00 | 0.00 | 0.00 | 71 | 1063.0 |
| 20260902122127 | 20 | 247 | 9.7 | 0.0 | 0.00 | 0.00 | 0.00 | 71 | 1063.0 |
| 20260902122014 | 20 | 247 | 0.0 | 0.0 | 0.00 | 0.00 | 0.00 | 71 | 1063.0 |
| 20260902121911 | 20 | 247 | 0.0 | 0.0 | 0.00 | 0.00 | 0.00 | 71 | 1063.0 |
| 20260902121805 | 20 | 270 | 6.4 | 0.0 | 0.00 | 0.00 | 0.00 | 72 | 1063.0 |
| 20260902121658 | 20 | 225 | 0.0 | 0.0 | 0.00 | 0.00 | 0.00 | 71 | 1063.0 |
| 20260902121553 | 20 | 202 | 3.2 | 0.0 | 0.00 | 0.00 | 0.00 | 71 | 1063.0 |
| 20260902121440 | 20 | 202 | 3.2 | 0.0 | 0.00 | 0.00 | 0.00 | 71 | 1063.0 |
| 20260902121335 | 20 | 202 | 4.8 | 0.0 | 0.00 | 0.00 | 0.00 | 71 | 1063.0 |
| 20260902121222 | 20 | 180 | 4.8 | 0.0 | 0.00 | 0.00 | 0.00 | 71 | 1063.0 |
| 20260902121108 | 20 | 202 | 6.4 | 0.0 | 0.00 | 0.00 | 0.00 | 71 | 1063.0 |
| 20260902120947 | 20 | 225 | 6.4 | 0.0 | 0.00 | 0.00 | 0.00 | 71 | 1063.0 |
| 20260902120827 | 20 | 225 | 6.4 | 0.0 | 0.00 | 0.00 | 0.00 | 72 | 1063.0 |
| 20260902120720 | 20 | 225 | 4.8 | 0.0 | 0.00 | 0.00 | 0.00 | 72 | 1062.9 |
| 20260902120606 | 20 | 202 | 0.0 | 0.0 | 0.00 | 0.00 | 0.00 | 72 | 1063.0 |
| 20260902120455 | 20 | 225 | 3.2 | 0.0 | 0.00 | 0.00 | 0.00 | 73 | 1062.9 |
| 20260902120347 | 20 | 225 | 6.4 | 0.0 | 0.00 | 0.00 | 0.00 | 73 | 1063.0 |
| 20260902120233 | 20 | 180 | 0.0 | 0.0 | 0.00 | 0.00 | 0.00 | 73 | 1062.9 |
| 20260902120119 | 20 | 180 | 3.2 | 0.0 | 0.00 | 0.00 | 0.00 | 73 | 1063.0 |
| 20260902120013 | 19 | 247 | 1.6 | 0.0 | 0.00 | 0.00 | 0.00 | 73 | 1063.0 |
| 20260902115859 | 19 | 270 | 6.4 | 0.0 | 0.00 | 0.00 | 0.00 | 73 | 1063.0 |
| 20260902115747 | 19 | 247 | 3.2 | 0.0 | 0.00 | 0.00 | 0.00 | 73 | 1063.0 |
| 20260902115632 | 19 | 270 | 4.8 | 0.0 | 0.00 | 0.00 | 0.00 | 73 | 1062.9 |
| 20260902115520 | 19 | 225 | 6.4 | 0.0 | 0.00 | 0.00 | 0.00 | 73 | 1062.9 |
| 20260902115406 | 19 | 270 | 1.6 | 0.0 | 0.00 | 0.00 | 0.00 | 73 | 1062.9 |
| 20260902115246 | 18 | 247 | 6.4 | 0.0 | 0.00 | 0.00 | 0.00 | 73 | 1062.9 |
| 20260902115141 | 18 | 225 | 4.8 | 0.0 | 0.00 | 0.00 | 0.00 | 73 | 1062.9 |
| 20260902115032 | 18 | 157 | 11.3 | 0.0 | 0.00 | 0.00 | 0.00 | 72 | 1063.0 |
| 20260902114918 | 19 | 247 | 0.0 | 0.0 | 0.00 | 0.00 | 0.00 | 72 | 1063.1 |
| 20260902114812 | 19 | 247 | 16.1 | 0.0 | 0.00 | 0.00 | 0.00 | 71 | 1063.1 |
| 20260902114702 | 19 | 270 | 3.2 | 0.0 | 0.00 | 0.00 | 0.00 | 71 | 1063.1 |
| 20260902114553 | 19 | 247 | 8.0 | 0.0 | 0.00 | 0.00 | 0.00 | 70 | 1063.1 |
| 20260902114441 | 19 | 270 | 4.8 | 0.0 | 0.00 | 0.00 | 0.00 | 70 | 1063.1 |
| 20260902114327 | 19 | 180 | 9.7 | 0.0 | 0.00 | 0.00 | 0.00 | 70 | 1063.1 |
| 20260902114214 | 20 | 270 | 9.7 | 0.0 | 0.00 | 0.00 | 0.00 | 70 | 1063.1 |
| 20260902114045 | 20 | 247 | 22.5 | 0.0 | 0.00 | 0.00 | 0.00 | 70 | 1063.1 |
| 20260902113932 | 20 | 270 | 12.9 | 0.0 | 0.00 | 0.00 | 0.00 | 69 | 1063.1 |
| 20260902113811 | 20 | 270 | 14.5 | 0.0 | 0.00 | 0.00 | 0.00 | 68 | 1063.1 |
| 20260902113649 | 20 | 270 | 20.9 | 0.0 | 0.00 | 0.00 | 0.00 | 67 | 1063.2 |
| 20260902113528 | 21 | 247 | 8.0 | 0.0 | 0.00 | 0.00 | 0.00 | 66 | 1063.1 |
| 20260902113407 | 21 | 292 | 22.5 | 0.0 | 0.00 | 0.00 | 0.00 | 67 | 1063.1 |
| 20260902113254 | 21 | 247 | 8.0 | 0.0 | 0.00 | 0.00 | 0.00 | 66 | 1063.1 |
| 20260902113137 | 21 | 270 | 22.5 | 0.0 | 0.00 | 0.00 | 0.00 | 66 | 1063.1 |
| 20260902113029 | 21 | 270 | 16.1 | 0.0 | 0.00 | 0.00 | 0.00 | 65 | 1063.2 |
| 20260902112913 | 21 | 270 | 3.2 | 0.0 | 0.00 | 0.00 | 0.00 | 64 | 1063.2 |
| 20260902112803 | 22 | 292 | 17.7 | 0.0 | 0.00 | 0.00 | 0.00 | 64 | 1063.2 |
| 20260902112655 | 22 | 315 | 9.7 | 0.0 | 0.00 | 0.00 | 0.00 | 63 | 1063.2 |
| 20260902112534 | 22 | 270 | 12.9 | 0.0 | 0.00 | 0.00 | 0.00 | 63 | 1063.2 |
| 20260902112421 | 22 | 270 | 11.3 | 0.0 | 0.00 | 0.00 | 0.00 | 63 | 1063.2 |
| 20260902112300 | 23 | 270 | 25.7 | 0.0 | 0.00 | 0.00 | 0.00 | 67 | 1063.2 |
| 20260902112140 | 23 | 292 | 14.5 | 0.0 | 0.00 | 0.00 | 0.00 | 67 | 1063.1 |
| 20260902112025 | 23 | 247 | 11.3 | 0.0 | 0.00 | 0.00 | 0.00 | 67 | 1063.2 |
| 20260902111856 | 23 | 270 | 11.3 | 0.0 | 0.00 | 0.00 | 0.00 | 67 | 1063.1 |
| 20260902111743 | 23 | 292 | 16.1 | 0.0 | 0.00 | 0.00 | 0.00 | 67 | 1063.1 |
| 20260902111614 | 22 | 270 | 4.8 | 0.0 | 0.00 | 0.00 | 0.00 | 67 | 1063.1 |
| 20260902111502 | 22 | 292 | 8.0 | 0.0 | 0.00 | 0.00 | 0.00 | 68 | 1063.2 |
| 20260902111350 | 22 | 247 | 0.0 | 0.0 | 0.00 | 0.00 | 0.00 | 68 | 1063.2 |
| 20260902111243 | 22 | 247 | 9.7 | 0.0 | 0.00 | 0.00 | 0.00 | 68 | 1063.1 |
| 20260902111122 | 22 | 247 | 12.9 | 0.0 | 0.00 | 0.00 | 0.00 | 69 | 1063.2 |
| 20260902111001 | 22 | 270 | 0.0 | 0.0 | 0.00 | 0.00 | 0.00 | 70 | 1063.2 |
| 20260902110848 | 22 | 270 | 6.4 | 0.0 | 0.00 | 0.00 | 0.00 | 69 | 1063.2 |
| 20260902110735 | 22 | 292 | 9.7 | 0.0 | 0.00 | 0.00 | 0.00 | 69 | 1063.2 |
| 20260902110630 | 22 | 270 | 6.4 | 0.0 | 0.00 | 0.00 | 0.00 | 69 | 1063.1 |
| 20260902110510 | 22 | 270 | 8.0 | 0.0 | 0.00 | 0.00 | 0.00 | 69 | 1063.2 |
| 20260902110406 | 22 | 270 | 0.0 | 0.0 | 0.00 | 0.00 | 0.00 | 68 | 1063.2 |
| 20260902110259 | 22 | 225 | 8.0 | 0.0 | 0.00 | 0.00 | 0.00 | 68 | 1063.2 |
| 20260902110153 | 22 | 315 | 12.9 | 0.0 | 0.00 | 0.00 | 0.00 | 68 | 1063.2 |
| 20260902110032 | 22 | 270 | 9.7 | 0.0 | 0.00 | 0.00 | 0.00 | 67 | 1063.1 |
| 20260902105910 | 23 | 270 | 17.7 | 0.0 | 0.00 | 0.00 | 0.00 | 67 | 1063.1 |
| 20260902105750 | 23 | 270 | 0.0 | 0.0 | 0.00 | 0.00 | 0.00 | 66 | 1063.1 |
| 20260902105638 | 23 | 270 | 6.4 | 0.0 | 0.00 | 0.00 | 0.00 | 66 | 1063.1 |
| 20260902105534 | 23 | 225 | 11.3 | 0.0 | 0.00 | 0.00 | 0.00 | 66 | 1063.1 |
| 20260902105426 | 23 | 292 | 19.3 | 0.0 | 0.00 | 0.00 | 0.00 | 65 | 1063.1 |
| 20260902105314 | 23 | 202 | 16.1 | 0.0 | 0.00 | 0.00 | 0.00 | 66 | 1063.1 |
| 20260902105200 | 23 | 247 | 6.4 | 0.0 | 0.00 | 0.00 | 0.00 | 66 | 1063.1 |
| 20260902105041 | 23 | 292 | 4.8 | 0.0 | 0.00 | 0.00 | 0.00 | 66 | 1063.1 |
| 20260902104933 | 23 | 292 | 0.0 | 0.0 | 0.00 | 0.00 | 0.00 | 66 | 1063.0 |
| 20260902104814 | 23 | 0 | 9.7 | 0.0 | 0.00 | 0.00 | 0.00 | 67 | 1063.1 |
| 20260902104708 | 22 | 292 | 0.0 | 0.0 | 0.00 | 0.00 | 0.00 | 66 | 1063.1 |
| 20260902104547 | 22 | 270 | 0.0 | 0.0 | 0.00 | 0.00 | 0.00 | 66 | 1063.1 |
| 20260902104426 | 22 | 270 | 6.4 | 0.0 | 0.00 | 0.00 | 0.00 | 66 | 1063.1 |
| 20260902104313 | 22 | 337 | 6.4 | 0.0 | 0.00 | 0.00 | 0.00 | 67 | 1063.1 |
| 20260902104151 | 22 | 225 | 6.4 | 0.0 | 0.00 | 0.00 | 0.00 | 67 | 1063.1 |
| 20260902104041 | 22 | 247 | 9.7 | 0.0 | 0.00 | 0.00 | 0.00 | 67 | 1063.1 |
| 20260902103914 | 22 | 202 | 8.0 | 0.0 | 0.00 | 0.00 | 0.00 | 67 | 1063.2 |
| 20260902103806 | 22 | 247 | 9.7 | 0.0 | 0.00 | 0.00 | 0.00 | 66 | 1063.2 |
| 20260902103645 | 22 | 270 | 11.3 | 0.0 | 0.00 | 0.00 | 0.00 | 67 | 1063.2 |
| 20260902103534 | 22 | 315 | 4.8 | 0.0 | 0.00 | 0.00 | 0.00 | 67 | 1063.1 |
| 20260902103418 | 22 | 247 | 9.7 | 0.0 | 0.00 | 0.00 | 0.00 | 67 | 1063.2 |
| 20260902103252 | 22 | 270 | 4.8 | 0.0 | 0.00 | 0.00 | 0.00 | 68 | 1063.2 |
| 20260902103133 | 22 | 292 | 14.5 | 0.0 | 0.00 | 0.00 | 0.00 | 68 | 1063.2 |
| 20260902103025 | 22 | 270 | 9.7 | 0.0 | 0.00 | 0.00 | 0.00 | 67 | 1063.2 |
| 20260902102905 | 22 | 292 | 8.0 | 0.0 | 0.00 | 0.00 | 0.00 | 67 | 1063.2 |
| 20260902102755 | 22 | 270 | 8.0 | 0.0 | 0.00 | 0.00 | 0.00 | 67 | 1063.1 |
| 20260902102648 | 22 | 270 | 11.3 | 0.0 | 0.00 | 0.00 | 0.00 | 67 | 1063.1 |
| 20260902102541 | 22 | 270 | 12.9 | 0.0 | 0.00 | 0.00 | 0.00 | 68 | 1063.2 |
| 20260902102422 | 22 | 247 | 16.1 | 0.0 | 0.00 | 0.00 | 0.00 | 69 | 1063.2 |
| 20260902102317 | 22 | 270 | 0.0 | 0.0 | 0.00 | 0.00 | 0.00 | 69 | 1063.2 |
| 20260902102212 | 22 | 270 | 0.0 | 0.0 | 0.00 | 0.00 | 0.00 | 69 | 1063.1 |
| 20260902102107 | 22 | 292 | 8.0 | 0.0 | 0.00 | 0.00 | 0.00 | 69 | 1063.1 |
| 20260902102002 | 22 | 247 | 0.0 | 0.0 | 0.00 | 0.00 | 0.00 | 69 | 1063.2 |
| 20260902101857 | 22 | 270 | 0.0 | 0.0 | 0.00 | 0.00 | 0.00 | 68 | 1063.1 |
| 20260902101751 | 22 | 247 | 6.4 | 0.0 | 0.00 | 0.00 | 0.00 | 68 | 1063.1 |
| 20260902101632 | 22 | 292 | 8.0 | 0.0 | 0.00 | 0.00 | 0.00 | 68 | 1063.1 |
| 20260902101527 | 22 | 247 | 0.0 | 0.0 | 0.00 | 0.00 | 0.00 | 67 | 1063.1 |
| 20260902101423 | 22 | 292 | 8.0 | 0.0 | 0.00 | 0.00 | 0.00 | 67 | 1063.1 |
| 20260902101318 | 22 | 247 | 4.8 | 0.0 | 0.00 | 0.00 | 0.00 | 67 | 1063.1 |
| 20260902101212 | 22 | 225 | 16.1 | 0.0 | 0.00 | 0.00 | 0.00 | 67 | 1063.0 |
| 20260902101107 | 22 | 247 | 9.7 | 0.0 | 0.00 | 0.00 | 0.00 | 67 | 1063.1 |
| 20260902100932 | 22 | 247 | 4.8 | 0.0 | 0.00 | 0.00 | 0.00 | 66 | 1063.0 |
| 20260902100827 | 23 | 292 | 11.3 | 0.0 | 0.00 | 0.00 | 0.00 | 65 | 1063.0 |
| 20260902100719 | 23 | 225 | 11.3 | 0.0 | 0.00 | 0.00 | 0.00 | 65 | 1063.0 |
| 20260902100559 | 23 | 157 | 14.5 | 0.0 | 0.00 | 0.00 | 0.00 | 65 | 1063.0 |
| 20260902100456 | 23 | 270 | 0.0 | 0.0 | 0.00 | 0.00 | 0.00 | 65 | 1063.0 |
| 20260902100348 | 23 | 247 | 3.2 | 0.0 | 0.00 | 0.00 | 0.00 | 65 | 1063.0 |
| 20260902100219 | 23 | 270 | 0.0 | 0.0 | 0.00 | 0.00 | 0.00 | 64 | 1063.0 |
| 20260902100107 | 23 | 292 | 9.7 | 0.0 | 0.00 | 0.00 | 0.00 | 64 | 1063.0 |
| 20260902095955 | 23 | 202 | 0.0 | 0.0 | 0.00 | 0.05 | 0.00 | 64 | 1063.0 |
| 20260902095848 | 23 | 247 | 9.7 | 0.0 | 0.00 | 0.05 | 0.00 | 63 | 1063.0 |
| 20260902095726 | 23 | 180 | 9.7 | 0.0 | 0.00 | 0.05 | 0.00 | 63 | 1063.0 |
| 20260902095613 | 24 | 225 | 9.7 | 0.0 | 0.00 | 0.05 | 0.00 | 62 | 1063.0 |
| 20260902095503 | 24 | 225 | 20.9 | 0.0 | 0.00 | 0.05 | 0.00 | 62 | 1063.0 |
| 20260902095355 | 25 | 225 | 9.7 | 0.0 | 0.00 | 0.05 | 0.00 | 62 | 1062.9 |
| 20260902095234 | 25 | 247 | 17.7 | 0.0 | 0.00 | 0.05 | 0.00 | 61 | 1063.0 |
| 20260902095123 | 25 | 292 | 9.7 | 0.0 | 0.00 | 0.05 | 0.00 | 60 | 1063.0 |
| 20260902095016 | 25 | 247 | 6.4 | 0.0 | 0.00 | 0.05 | 0.00 | 59 | 1062.9 |
| 20260902094855 | 25 | 270 | 6.4 | 0.0 | 0.00 | 0.05 | 0.00 | 58 | 1063.0 |
| 20260902094742 | 26 | 247 | 6.4 | 0.0 | 0.00 | 0.05 | 0.00 | 57 | 1062.9 |
| 20260902094629 | 26 | 225 | 6.4 | 0.0 | 0.00 | 0.05 | 0.00 | 57 | 1062.9 |
| 20260902094524 | 26 | 292 | 11.3 | 0.0 | 0.00 | 0.05 | 0.00 | 56 | 1062.9 |
| 20260902094412 | 26 | 225 | 0.0 | 0.0 | 0.00 | 0.05 | 0.00 | 56 | 1062.9 |
| 20260902094306 | 26 | 247 | 9.7 | 0.0 | 0.00 | 0.05 | 0.00 | 56 | 1062.9 |
| 20260902094154 | 27 | 292 | 9.7 | 0.0 | 0.00 | 0.05 | 0.00 | 55 | 1062.9 |
| 20260902094049 | 27 | 247 | 6.4 | 0.0 | 0.00 | 0.05 | 0.00 | 56 | 1062.9 |
| 20260902093942 | 26 | 247 | 0.0 | 0.0 | 0.00 | 0.05 | 0.00 | 57 | 1062.9 |
| 20260902093820 | 26 | 247 | 6.4 | 0.0 | 0.00 | 0.05 | 0.00 | 57 | 1062.8 |
| 20260902093652 | 26 | 225 | 4.8 | 0.0 | 0.00 | 0.05 | 0.00 | 56 | 1062.8 |
| 20260902093530 | 26 | 247 | 9.7 | 0.0 | 0.00 | 0.05 | 0.00 | 56 | 1062.9 |
| 20260902093409 | 27 | 157 | 8.0 | 0.0 | 0.00 | 0.05 | 0.00 | 56 | 1062.9 |
| 20260902093257 | 26 | 247 | 11.3 | 0.0 | 0.00 | 0.05 | 0.00 | 56 | 1062.9 |
| 20260902093152 | 26 | 270 | 11.3 | 0.0 | 0.00 | 0.05 | 0.00 | 56 | 1062.9 |
| 20260902093030 | 26 | 225 | 0.0 | 0.0 | 0.00 | 0.05 | 0.00 | 56 | 1062.9 |
| 20260902092917 | 26 | 247 | 8.0 | 0.0 | 0.00 | 0.05 | 0.00 | 57 | 1062.9 |
| 20260902092755 | 26 | 270 | 11.3 | 0.0 | 0.00 | 0.05 | 0.00 | 57 | 1062.8 |
| 20260902092635 | 26 | 180 | 14.5 | 0.0 | 0.00 | 0.05 | 0.00 | 58 | 1062.9 |
| 20260902092522 | 26 | 225 | 4.8 | 0.0 | 0.00 | 0.05 | 0.00 | 59 | 1062.9 |
| 20260902092415 | 26 | 270 | 0.0 | 0.0 | 0.00 | 0.05 | 0.00 | 59 | 1062.9 |
| 20260902092305 | 26 | 270 | 6.4 | 0.0 | 0.00 | 0.05 | 0.00 | 59 | 1062.9 |
| 20260902092150 | 26 | 270 | 9.7 | 0.0 | 0.00 | 0.05 | 0.00 | 58 | 1062.9 |
| 20260902092039 | 26 | 225 | 8.0 | 0.0 | 0.00 | 0.05 | 0.00 | 58 | 1062.9 |
| 20260902091934 | 26 | 225 | 9.7 | 0.0 | 0.00 | 0.05 | 0.00 | 59 | 1062.9 |
| 20260902091819 | 26 | 225 | 9.7 | 0.0 | 0.00 | 0.05 | 0.00 | 59 | 1062.9 |
| 20260902091705 | 26 | 202 | 9.7 | 0.0 | 0.00 | 0.05 | 0.00 | 59 | 1062.9 |
| 20260902091545 | 26 | 247 | 6.4 | 0.0 | 0.00 | 0.05 | 0.00 | 59 | 1062.9 |
| 20260902091442 | 26 | 202 | 9.7 | 0.0 | 0.00 | 0.05 | 0.00 | 59 | 1062.9 |
| 20260902091334 | 26 | 270 | 9.7 | 0.0 | 0.00 | 0.05 | 0.00 | 61 | 1062.9 |
| 20260902091224 | 25 | 247 | 0.0 | 0.0 | 0.00 | 0.05 | 0.00 | 61 | 1062.9 |
| 20260902091117 | 25 | 180 | 6.4 | 0.0 | 0.00 | 0.05 | 0.00 | 60 | 1062.9 |
| 20260902091003 | 25 | 225 | 9.7 | 0.0 | 0.00 | 0.05 | 0.00 | 61 | 1062.9 |
| 20260902090843 | 25 | 247 | 9.7 | 0.0 | 0.00 | 0.05 | 0.00 | 61 | 1062.9 |
| 20260902090729 | 25 | 225 | 11.3 | 0.0 | 0.00 | 0.05 | 0.00 | 61 | 1062.9 |
| 20260902090602 | 25 | 225 | 8.0 | 0.0 | 0.00 | 0.05 | 0.00 | 61 | 1062.9 |
| 20260902090448 | 25 | 180 | 11.3 | 0.0 | 0.00 | 0.05 | 0.00 | 61 | 1062.8 |
| 20260902090342 | 25 | 202 | 6.4 | 0.0 | 0.00 | 0.05 | 0.00 | 60 | 1062.9 |
| 20260902090231 | 25 | 157 | 17.7 | 0.0 | 0.00 | 0.05 | 0.00 | 59 | 1062.9 |
| 20260902090117 | 25 | 225 | 9.7 | 0.0 | 0.00 | 0.05 | 0.00 | 60 | 1062.9 |
| 20260902090012 | 25 | 202 | 3.2 | 0.0 | 0.00 | 0.05 | 0.00 | 60 | 1062.9 |
| 20260902085859 | 25 | 292 | 8.0 | 0.0 | 0.00 | 0.20 | 0.00 | 59 | 1062.9 |
| 20260902085746 | 26 | 157 | 8.0 | 0.0 | 0.00 | 0.20 | 0.00 | 59 | 1062.9 |
| 20260902085641 | 26 | 247 | 4.8 | 0.0 | 0.00 | 0.20 | 0.00 | 59 | 1062.9 |
| 20260902085536 | 26 | 202 | 16.1 | 0.0 | 0.00 | 0.20 | 0.00 | 59 | 1062.9 |
| 20260902085431 | 26 | 270 | 11.3 | 0.0 | 0.00 | 0.20 | 0.00 | 59 | 1063.0 |
| 20260902085325 | 26 | 247 | 0.0 | 0.0 | 0.00 | 0.20 | 0.00 | 59 | 1062.9 |
| 20260902085220 | 26 | 247 | 9.7 | 0.0 | 0.00 | 0.20 | 0.00 | 59 | 1062.9 |
| 20260902085109 | 26 | 157 | 0.0 | 0.0 | 0.00 | 0.20 | 0.00 | 59 | 1062.9 |
| 20260902085001 | 25 | 292 | 0.0 | 0.0 | 0.00 | 0.20 | 0.00 | 59 | 1062.9 |
| 20260902084849 | 25 | 247 | 0.0 | 0.0 | 0.00 | 0.20 | 0.00 | 59 | 1062.9 |
| 20260902084735 | 25 | 225 | 0.0 | 0.0 | 0.00 | 0.20 | 0.00 | 59 | 1063.0 |
| 20260902084623 | 25 | 180 | 11.3 | 0.0 | 0.00 | 0.20 | 0.00 | 59 | 1062.9 |
| 20260902084510 | 25 | 180 | 8.0 | 0.0 | 0.00 | 0.20 | 0.00 | 58 | 1062.9 |
| 20260902084347 | 26 | 225 | 16.1 | 0.0 | 0.00 | 0.20 | 0.00 | 59 | 1062.9 |
| 20260902084235 | 25 | 270 | 0.0 | 0.0 | 0.00 | 0.20 | 0.00 | 59 | 1062.8 |
| 20260902084131 | 25 | 247 | 9.7 | 0.0 | 0.00 | 0.20 | 0.00 | 59 | 1062.8 |
| 20260902084017 | 25 | 247 | 9.7 | 0.0 | 0.00 | 0.20 | 0.00 | 59 | 1062.9 |
| 20260902083854 | 25 | 247 | 0.0 | 0.0 | 0.00 | 0.20 | 0.00 | 60 | 1062.9 |
| 20260902083742 | 25 | 270 | 6.4 | 0.0 | 0.00 | 0.20 | 0.00 | 60 | 1062.8 |
| 20260902083621 | 25 | 225 | 8.0 | 0.0 | 0.00 | 0.20 | 0.00 | 60 | 1062.8 |
| 20260902083508 | 25 | 225 | 3.2 | 0.0 | 0.00 | 0.20 | 0.00 | 60 | 1062.8 |
| 20260902083346 | 25 | 202 | 9.7 | 0.0 | 0.00 | 0.20 | 0.00 | 60 | 1062.8 |
| 20260902083236 | 25 | 292 | 8.0 | 0.0 | 0.00 | 0.20 | 0.00 | 60 | 1062.7 |
| 20260902083129 | 25 | 157 | 8.0 | 0.0 | 0.00 | 0.20 | 0.00 | 60 | 1062.8 |
| 20260902083000 | 25 | 270 | 8.0 | 0.0 | 0.00 | 0.20 | 0.00 | 60 | 1062.8 |
| 20260902082850 | 25 | 202 | 17.7 | 0.0 | 0.00 | 0.20 | 0.00 | 60 | 1062.7 |
| 20260902082744 | 25 | 180 | 6.4 | 0.0 | 0.00 | 0.20 | 0.00 | 60 | 1062.7 |
| 20260902082638 | 25 | 157 | 8.0 | 0.0 | 0.00 | 0.20 | 0.00 | 60 | 1062.6 |
| 20260902082526 | 25 | 180 | 8.0 | 0.0 | 0.00 | 0.20 | 0.00 | 61 | 1062.6 |
| 20260902082413 | 25 | 180 | 11.3 | 0.0 | 0.00 | 0.20 | 0.00 | 62 | 1062.6 |
| 20260902082254 | 24 | 292 | 8.0 | 0.0 | 0.00 | 0.20 | 0.00 | 62 | 1062.6 |
| 20260902082134 | 24 | 225 | 0.0 | 0.0 | 0.00 | 0.20 | 0.00 | 62 | 1062.6 |
| 20260902082017 | 24 | 202 | 0.0 | 0.0 | 0.00 | 0.20 | 0.00 | 62 | 1062.5 |
| 20260902081904 | 24 | 202 | 6.4 | 0.0 | 0.00 | 0.20 | 0.00 | 62 | 1062.6 |
| 20260902081751 | 23 | 270 | 3.2 | 0.0 | 0.00 | 0.20 | 0.00 | 63 | 1062.5 |
| 20260902081638 | 23 | 157 | 8.0 | 0.0 | 0.00 | 0.20 | 0.00 | 62 | 1062.5 |
| 20260902081532 | 23 | 270 | 4.8 | 0.0 | 0.00 | 0.20 | 0.00 | 62 | 1062.5 |
| 20260902081411 | 23 | 225 | 8.0 | 0.0 | 0.00 | 0.20 | 0.00 | 62 | 1062.5 |
| 20260902081258 | 23 | 202 | 14.5 | 0.0 | 0.00 | 0.20 | 0.00 | 62 | 1062.5 |
| 20260902081146 | 23 | 202 | 12.9 | 0.0 | 0.00 | 0.20 | 0.00 | 62 | 1062.4 |
| 20260902081032 | 23 | 270 | 0.0 | 0.0 | 0.00 | 0.20 | 0.00 | 62 | 1062.4 |
| 20260902080919 | 23 | 202 | 9.7 | 0.0 | 0.00 | 0.20 | 0.00 | 62 | 1062.5 |
| 20260902080806 | 23 | 157 | 4.8 | 0.0 | 0.00 | 0.20 | 0.00 | 63 | 1062.5 |
| 20260902080652 | 23 | 180 | 8.0 | 0.0 | 0.00 | 0.20 | 0.00 | 62 | 1062.5 |
| 20260902080540 | 23 | 180 | 8.0 | 0.0 | 0.00 | 0.20 | 0.00 | 62 | 1062.5 |
| 20260902080418 | 23 | 180 | 6.4 | 0.0 | 0.00 | 0.20 | 0.00 | 63 | 1062.5 |
| 20260902080306 | 23 | 180 | 9.7 | 0.0 | 0.00 | 0.20 | 0.00 | 64 | 1062.5 |
| 20260902080201 | 23 | 180 | 8.0 | 0.0 | 0.00 | 0.20 | 0.00 | 65 | 1062.5 |
| 20260902080056 | 23 | 202 | 0.0 | 0.0 | 0.00 | 0.20 | 0.00 | 65 | 1062.5 |
| 20260902075950 | 23 | 225 | 4.8 | 0.0 | 0.00 | 0.20 | 0.00 | 64 | 1062.4 |
| 20260902075831 | 23 | 247 | 6.4 | 0.0 | 0.00 | 0.20 | 0.00 | 64 | 1062.5 |
| 20260902075715 | 23 | 225 | 6.4 | 0.0 | 0.00 | 0.20 | 0.00 | 65 | 1062.5 |
| 20260902075554 | 22 | 180 | 3.2 | 0.0 | 0.00 | 0.20 | 0.00 | 65 | 1062.5 |
| 20260902075433 | 22 | 202 | 0.0 | 0.0 | 0.00 | 0.20 | 0.00 | 66 | 1062.4 |
| 20260902075312 | 22 | 270 | 8.0 | 0.0 | 0.00 | 0.20 | 0.00 | 65 | 1062.5 |
| 20260902075150 | 22 | 202 | 8.0 | 0.0 | 0.00 | 0.20 | 0.00 | 66 | 1062.5 |
| 20260902075038 | 22 | 180 | 9.7 | 0.0 | 0.00 | 0.20 | 0.00 | 66 | 1062.4 |
| 20260902074933 | 22 | 247 | 9.7 | 0.0 | 0.00 | 0.20 | 0.00 | 66 | 1062.5 |
| 20260902074828 | 22 | 270 | 11.3 | 0.0 | 0.00 | 0.20 | 0.00 | 66 | 1062.5 |
| 20260902074717 | 22 | 202 | 9.7 | 0.0 | 0.00 | 0.20 | 0.00 | 66 | 1062.5 |
| 20260902074611 | 22 | 180 | 12.9 | 0.0 | 0.00 | 0.20 | 0.00 | 66 | 1062.5 |
| 20260902074504 | 22 | 247 | 6.4 | 0.0 | 0.00 | 0.20 | 0.00 | 66 | 1062.5 |
| 20260902074350 | 22 | 202 | 9.7 | 0.0 | 0.00 | 0.20 | 0.00 | 66 | 1062.6 |
| 20260902074229 | 22 | 247 | 6.4 | 0.0 | 0.00 | 0.20 | 0.00 | 66 | 1062.5 |
| 20260902074118 | 22 | 202 | 9.7 | 0.0 | 0.00 | 0.20 | 0.00 | 66 | 1062.5 |
| 20260902074004 | 22 | 202 | 11.3 | 0.0 | 0.00 | 0.20 | 0.00 | 66 | 1062.6 |
| 20260902073850 | 22 | 202 | 12.9 | 0.0 | 0.00 | 0.20 | 0.00 | 67 | 1062.5 |
| 20260902073729 | 22 | 202 | 0.0 | 0.0 | 0.00 | 0.20 | 0.00 | 67 | 1062.5 |
| 20260902073617 | 21 | 225 | 4.8 | 0.0 | 0.00 | 0.20 | 0.00 | 67 | 1062.5 |
| 20260902073512 | 22 | 225 | 4.8 | 0.0 | 0.00 | 0.20 | 0.00 | 67 | 1062.5 |
| 20260902073350 | 21 | 180 | 3.2 | 0.0 | 0.00 | 0.20 | 0.00 | 67 | 1062.5 |
| 20260902073214 | 21 | 225 | 3.2 | 0.0 | 0.00 | 0.20 | 0.00 | 68 | 1062.5 |
| 20260902073056 | 21 | 202 | 14.5 | 0.0 | 0.00 | 0.20 | 0.00 | 68 | 1062.5 |
| 20260902072950 | 21 | 202 | 9.7 | 0.0 | 0.00 | 0.20 | 0.00 | 67 | 1062.5 |
| 20260902072845 | 21 | 180 | 12.9 | 0.0 | 0.00 | 0.20 | 0.00 | 68 | 1062.4 |
| 20260902072739 | 21 | 247 | 4.8 | 0.0 | 0.00 | 0.20 | 0.00 | 69 | 1062.5 |
| 20260902072617 | 21 | 202 | 9.7 | 0.0 | 0.00 | 0.20 | 0.00 | 69 | 1062.4 |
| 20260902072459 | 21 | 202 | 0.0 | 0.0 | 0.00 | 0.20 | 0.00 | 70 | 1062.5 |
| 20260902072351 | 20 | 202 | 8.0 | 0.0 | 0.00 | 0.20 | 0.00 | 71 | 1062.4 |
| 20260902072222 | 20 | 180 | 6.4 | 0.0 | 0.00 | 0.20 | 0.00 | 72 | 1062.5 |
| 20260902072103 | 20 | 180 | 8.0 | 0.0 | 0.00 | 0.20 | 0.00 | 72 | 1062.5 |
| 20260902071955 | 20 | 180 | 3.2 | 0.0 | 0.00 | 0.20 | 0.00 | 73 | 1062.5 |
| 20260902071841 | 20 | 180 | 9.7 | 0.0 | 0.00 | 0.20 | 0.00 | 73 | 1062.5 |
| 20260902071727 | 20 | 202 | 11.3 | 0.0 | 0.00 | 0.20 | 0.00 | 72 | 1062.6 |
| 20260902071605 | 20 | 247 | 3.2 | 0.0 | 0.00 | 0.20 | 0.00 | 73 | 1062.5 |
| 20260902071452 | 19 | 180 | 0.0 | 0.0 | 0.00 | 0.20 | 0.00 | 74 | 1062.5 |
| 20260902071346 | 19 | 180 | 6.4 | 0.0 | 0.00 | 0.20 | 0.00 | 74 | 1062.6 |
| 20260902071225 | 19 | 270 | 8.0 | 0.0 | 0.00 | 0.20 | 0.00 | 74 | 1062.5 |
| 20260902071103 | 19 | 225 | 17.7 | 0.0 | 0.00 | 0.20 | 0.00 | 75 | 1062.5 |
| 20260902070934 | 18 | 180 | 4.8 | 0.0 | 0.00 | 0.20 | 0.00 | 77 | 1062.5 |
| 20260902070813 | 18 | 180 | 0.0 | 0.0 | 0.00 | 0.20 | 0.00 | 78 | 1062.5 |
| 20260902070655 | 18 | 180 | 0.0 | 0.0 | 0.00 | 0.20 | 0.00 | 78 | 1062.6 |
| 20260902070547 | 18 | 180 | 12.9 | 0.0 | 0.00 | 0.20 | 0.00 | 79 | 1062.6 |
| 20260902070433 | 17 | 202 | 16.1 | 0.0 | 0.00 | 0.20 | 0.00 | 79 | 1062.5 |
| 20260902070327 | 17 | 202 | 9.7 | 0.0 | 0.00 | 0.20 | 0.00 | 80 | 1062.5 |
| 20260902070213 | 17 | 202 | 11.3 | 0.0 | 0.00 | 0.20 | 0.00 | 80 | 1062.5 |
| 20260902065957 | 17 | 157 | 3.2 | 0.0 | 0.00 | 0.25 | 0.00 | 80 | 1062.5 |
| 20260902065842 | 17 | 225 | 6.4 | 0.0 | 0.00 | 0.25 | 0.00 | 80 | 1062.5 |
| 20260902065729 | 17 | 180 | 8.0 | 0.0 | 0.00 | 0.25 | 0.00 | 80 | 1062.6 |
| 20260902065615 | 17 | 202 | 1.6 | 0.0 | 0.00 | 0.25 | 0.00 | 80 | 1062.6 |
| 20260902065455 | 17 | 180 | 17.7 | 0.0 | 0.00 | 0.25 | 0.00 | 80 | 1062.6 |
| 20260902065342 | 17 | 180 | 0.0 | 0.0 | 0.00 | 0.25 | 0.00 | 80 | 1062.6 |
| 20260902065237 | 17 | 202 | 9.7 | 0.0 | 0.00 | 0.25 | 0.00 | 80 | 1062.6 |
| 20260902065132 | 17 | 202 | 0.0 | 0.0 | 0.00 | 0.25 | 0.00 | 80 | 1062.5 |
| 20260902065027 | 17 | 202 | 6.4 | 0.0 | 0.00 | 0.25 | 0.00 | 80 | 1062.5 |
| 20260902064907 | 17 | 202 | 8.0 | 0.0 | 0.00 | 0.25 | 0.00 | 79 | 1062.6 |
| 20260902064800 | 17 | 225 | 8.0 | 0.0 | 0.00 | 0.25 | 0.00 | 79 | 1062.5 |
| 20260902064647 | 17 | 225 | 6.4 | 0.0 | 0.00 | 0.25 | 0.00 | 79 | 1062.5 |
| 20260902064533 | 17 | 202 | 4.8 | 0.0 | 0.00 | 0.25 | 0.00 | 79 | 1062.6 |
| 20260902064426 | 17 | 202 | 0.0 | 0.0 | 0.00 | 0.25 | 0.00 | 79 | 1062.5 |
| 20260902064305 | 17 | 180 | 6.4 | 0.0 | 0.00 | 0.25 | 0.00 | 79 | 1062.5 |
| 20260902064151 | 17 | 157 | 6.4 | 0.0 | 0.00 | 0.25 | 0.00 | 79 | 1062.6 |
| 20260902064037 | 17 | 202 | 6.4 | 0.0 | 0.00 | 0.25 | 0.00 | 79 | 1062.5 |
| 20260902063932 | 17 | 202 | 8.0 | 0.0 | 0.00 | 0.25 | 0.00 | 80 | 1062.5 |
| 20260902063819 | 17 | 247 | 6.4 | 0.0 | 0.00 | 0.25 | 0.00 | 80 | 1062.6 |
| 20260902063712 | 17 | 202 | 9.7 | 0.0 | 0.00 | 0.25 | 0.00 | 80 | 1062.6 |
| 20260902063600 | 17 | 225 | 1.6 | 0.0 | 0.00 | 0.25 | 0.00 | 80 | 1062.6 |
| 20260902063439 | 17 | 180 | 6.4 | 0.0 | 0.00 | 0.25 | 0.00 | 80 | 1062.6 |
| 20260902063318 | 17 | 180 | 4.8 | 0.0 | 0.00 | 0.25 | 0.00 | 81 | 1062.5 |
| 20260902063156 | 17 | 202 | 8.0 | 0.0 | 0.00 | 0.25 | 0.00 | 80 | 1062.6 |
| 20260902063037 | 17 | 202 | 14.5 | 0.0 | 0.00 | 0.25 | 0.00 | 81 | 1062.5 |
| 20260902062922 | 17 | 180 | 9.7 | 0.0 | 0.00 | 0.25 | 0.00 | 81 | 1062.6 |
| 20260902062809 | 17 | 157 | 6.4 | 0.0 | 0.00 | 0.25 | 0.00 | 82 | 1062.5 |
| 20260902062647 | 17 | 225 | 8.0 | 0.0 | 0.00 | 0.25 | 0.00 | 82 | 1062.5 |
| 20260902062535 | 17 | 157 | 6.4 | 0.0 | 0.00 | 0.25 | 0.00 | 83 | 1062.6 |
| 20260902062422 | 17 | 180 | 4.8 | 0.0 | 0.00 | 0.25 | 0.00 | 84 | 1062.6 |
| 20260902062305 | 17 | 202 | 4.8 | 0.0 | 0.00 | 0.25 | 0.00 | 85 | 1062.6 |
| 20260902062155 | 17 | 157 | 1.6 | 0.0 | 0.00 | 0.25 | 0.00 | 86 | 1062.6 |
| 20260902062049 | 17 | 225 | 11.3 | 0.0 | 0.00 | 0.25 | 0.00 | 87 | 1062.6 |
| 20260902061935 | 16 | 202 | 9.7 | 0.0 | 0.00 | 0.25 | 0.00 | 88 | 1062.6 |
| 20260902061824 | 16 | 157 | 6.4 | 0.0 | 0.00 | 0.25 | 0.00 | 88 | 1062.6 |
| 20260902061717 | 16 | 180 | 9.7 | 0.0 | 0.00 | 0.25 | 0.00 | 89 | 1062.7 |
| 20260902061604 | 16 | 157 | 0.0 | 0.0 | 0.00 | 0.25 | 0.00 | 90 | 1062.6 |
| 20260902061450 | 16 | 180 | 0.0 | 0.0 | 0.00 | 0.25 | 0.00 | 90 | 1062.6 |
| 20260902061329 | 16 | 180 | 11.3 | 0.0 | 0.00 | 0.25 | 0.00 | 90 | 1062.7 |
| 20260902061222 | 16 | 180 | 3.2 | 0.0 | 0.00 | 0.25 | 0.00 | 91 | 1062.6 |
| 20260902061116 | 16 | 202 | 0.0 | 0.0 | 0.00 | 0.25 | 0.00 | 90 | 1062.6 |
| 20260902061003 | 15 | 180 | 9.7 | 0.0 | 0.00 | 0.25 | 0.00 | 91 | 1062.6 |
| 20260902060857 | 15 | 135 | 4.8 | 0.0 | 0.00 | 0.25 | 0.00 | 91 | 1062.7 |
| 20260902060751 | 15 | 180 | 0.0 | 0.0 | 0.00 | 0.25 | 0.00 | 91 | 1062.6 |
| 20260902060629 | 15 | 202 | 0.0 | 0.0 | 0.00 | 0.25 | 0.00 | 91 | 1062.6 |
| 20260902060526 | 14 | 202 | 0.0 | 0.0 | 0.00 | 0.25 | 0.00 | 91 | 1062.6 |
| 20260902060419 | 14 | 180 | 0.0 | 0.0 | 0.00 | 0.25 | 0.00 | 91 | 1062.7 |
| 20260902060306 | 14 | 202 | 0.0 | 0.0 | 0.00 | 0.25 | 0.00 | 91 | 1062.7 |
| 20260902060201 | 14 | 202 | 0.0 | 0.0 | 0.00 | 0.25 | 0.00 | 91 | 1062.7 |
| 20260902060056 | 14 | 202 | 4.8 | 0.0 | 0.00 | 0.25 | 0.00 | 91 | 1062.6 |
| 20260902055951 | 14 | 180 | 4.8 | 0.0 | 0.00 | 0.25 | 0.00 | 91 | 1062.6 |
| 20260902055821 | 13 | 180 | 0.0 | 0.0 | 0.00 | 0.25 | 0.00 | 91 | 1062.6 |
| 20260902055707 | 13 | 180 | 8.0 | 0.0 | 0.00 | 0.25 | 0.00 | 91 | 1062.6 |
| 20260902055547 | 13 | 202 | 0.0 | 0.0 | 0.00 | 0.25 | 0.00 | 91 | 1062.6 |
| 20260902055434 | 13 | 180 | 0.0 | 0.0 | 0.00 | 0.25 | 0.00 | 91 | 1062.7 |
| 20260902055321 | 13 | 180 | 3.2 | 0.0 | 0.00 | 0.25 | 0.00 | 91 | 1062.7 |
| 20260902055207 | 13 | 157 | 8.0 | 0.0 | 0.00 | 0.25 | 0.00 | 91 | 1062.7 |
| 20260902055054 | 13 | 180 | 8.0 | 0.0 | 0.00 | 0.25 | 0.00 | 91 | 1062.7 |
| 20260902054943 | 13 | 180 | 4.8 | 0.0 | 0.00 | 0.25 | 0.00 | 91 | 1062.7 |
| 20260902054837 | 13 | 180 | 6.4 | 0.0 | 0.00 | 0.25 | 0.00 | 91 | 1062.7 |
| 20260902054731 | 13 | 180 | 3.2 | 0.0 | 0.00 | 0.25 | 0.00 | 91 | 1062.7 |
| 20260902054609 | 13 | 180 | 0.0 | 0.0 | 0.00 | 0.25 | 0.00 | 91 | 1062.6 |
| 20260902054457 | 13 | 180 | 0.0 | 0.0 | 0.00 | 0.25 | 0.00 | 91 | 1062.7 |
| 20260902054344 | 13 | 202 | 0.0 | 0.0 | 0.00 | 0.25 | 0.00 | 91 | 1062.7 |
| 20260902054231 | 13 | 202 | 0.0 | 0.0 | 0.00 | 0.25 | 0.00 | 91 | 1062.6 |
| 20260902054124 | 13 | 202 | 0.0 | 0.0 | 0.00 | 0.25 | 0.00 | 91 | 1062.7 |
| 20260902054004 | 13 | 202 | 0.0 | 0.0 | 0.00 | 0.25 | 0.00 | 91 | 1062.7 |
| 20260902053846 | 13 | 202 | 0.0 | 0.0 | 0.00 | 0.25 | 0.00 | 91 | 1062.6 |
| 20260902053729 | 13 | 202 | 0.0 | 0.0 | 0.00 | 0.25 | 0.00 | 91 | 1062.7 |
| 20260902053609 | 13 | 202 | 0.0 | 0.0 | 0.00 | 0.25 | 0.00 | 91 | 1062.6 |
| 20260902053456 | 13 | 202 | 0.0 | 0.0 | 0.00 | 0.25 | 0.00 | 91 | 1062.6 |
| 20260902053350 | 13 | 202 | 3.2 | 0.0 | 0.00 | 0.25 | 0.00 | 92 | 1062.6 |
| 20260902053229 | 13 | 180 | 0.0 | 0.0 | 0.00 | 0.25 | 0.00 | 91 | 1062.6 |
| 20260902053117 | 13 | 157 | 0.0 | 0.0 | 0.00 | 0.25 | 0.00 | 91 | 1062.6 |
| 20260902053004 | 13 | 180 | 0.0 | 0.0 | 0.00 | 0.25 | 0.00 | 91 | 1062.6 |
| 20260902052858 | 13 | 180 | 0.0 | 0.0 | 0.00 | 0.25 | 0.00 | 91 | 1062.7 |
| 20260902052747 | 13 | 180 | 0.0 | 0.0 | 0.00 | 0.25 | 0.00 | 91 | 1062.7 |
| 20260902052632 | 13 | 180 | 0.0 | 0.0 | 0.00 | 0.25 | 0.00 | 91 | 1062.6 |
| 20260902052510 | 13 | 180 | 0.0 | 0.0 | 0.00 | 0.25 | 0.00 | 91 | 1062.6 |
| 20260902052350 | 13 | 202 | 3.2 | 0.0 | 0.00 | 0.25 | 0.00 | 91 | 1062.7 |
| 20260902052236 | 13 | 180 | 8.0 | 0.0 | 0.00 | 0.25 | 0.00 | 91 | 1062.6 |
| 20260902052115 | 13 | 202 | 4.8 | 0.0 | 0.00 | 0.25 | 0.00 | 91 | 1062.6 |
| 20260902052002 | 13 | 180 | 0.0 | 0.0 | 0.00 | 0.25 | 0.00 | 91 | 1062.7 |
| 20260902051849 | 13 | 180 | 3.2 | 0.0 | 0.00 | 0.25 | 0.00 | 91 | 1062.6 |
| 20260902051727 | 13 | 157 | 8.0 | 0.0 | 0.00 | 0.25 | 0.00 | 91 | 1062.6 |
| 20260902051607 | 13 | 180 | 4.8 | 0.0 | 0.00 | 0.25 | 0.00 | 91 | 1062.7 |
| 20260902051503 | 13 | 202 | 4.8 | 0.0 | 0.00 | 0.25 | 0.00 | 91 | 1062.7 |
| 20260902051357 | 13 | 180 | 3.2 | 0.0 | 0.00 | 0.25 | 0.00 | 91 | 1062.7 |
| 20260902051251 | 13 | 180 | 3.2 | 0.0 | 0.00 | 0.25 | 0.00 | 91 | 1062.6 |
| 20260902051138 | 13 | 180 | 1.6 | 0.0 | 0.00 | 0.25 | 0.00 | 91 | 1062.6 |
| 20260902051033 | 13 | 180 | 4.8 | 0.0 | 0.00 | 0.25 | 0.00 | 91 | 1062.7 |
| 20260902050920 | 13 | 157 | 0.0 | 0.0 | 0.00 | 0.25 | 0.00 | 91 | 1062.6 |
| 20260902050806 | 13 | 180 | 0.0 | 0.0 | 0.00 | 0.25 | 0.00 | 91 | 1062.6 |
| 20260902050653 | 13 | 180 | 0.0 | 0.0 | 0.00 | 0.25 | 0.00 | 91 | 1062.6 |
| 20260902050541 | 13 | 157 | 0.0 | 0.0 | 0.00 | 0.25 | 0.00 | 91 | 1062.7 |
| 20260902050435 | 13 | 202 | 9.7 | 0.0 | 0.00 | 0.25 | 0.00 | 91 | 1062.7 |
| 20260902050322 | 13 | 157 | 6.4 | 0.0 | 0.00 | 0.25 | 0.00 | 91 | 1062.6 |
| 20260902050201 | 13 | 180 | 6.4 | 0.0 | 0.00 | 0.25 | 0.00 | 91 | 1062.6 |
| 20260902050041 | 13 | 157 | 0.0 | 0.0 | 0.00 | 0.25 | 0.00 | 91 | 1062.6 |
| 20260902045935 | 13 | 157 | 0.0 | 0.0 | 0.00 | 0.30 | 0.00 | 91 | 1062.6 |
| 20260902045813 | 13 | 157 | 6.4 | 0.0 | 0.00 | 0.30 | 0.00 | 91 | 1062.7 |
| 20260902045701 | 13 | 180 | 6.4 | 0.0 | 0.00 | 0.30 | 0.00 | 91 | 1062.7 |
| 20260902045541 | 13 | 202 | 4.8 | 0.0 | 0.00 | 0.30 | 0.00 | 91 | 1062.6 |
| 20260902045437 | 13 | 202 | 6.4 | 0.0 | 0.00 | 0.30 | 0.00 | 91 | 1062.6 |
| 20260902045329 | 13 | 157 | 3.2 | 0.0 | 0.00 | 0.30 | 0.00 | 91 | 1062.7 |
| 20260902045208 | 13 | 202 | 9.7 | 0.0 | 0.00 | 0.30 | 0.00 | 91 | 1062.6 |
| 20260902045041 | 13 | 180 | 0.0 | 0.0 | 0.00 | 0.30 | 0.00 | 91 | 1062.6 |
| 20260902044933 | 13 | 157 | 0.0 | 0.0 | 0.00 | 0.30 | 0.00 | 91 | 1062.5 |
| 20260902044821 | 13 | 180 | 0.0 | 0.0 | 0.00 | 0.30 | 0.00 | 91 | 1062.6 |
| 20260902044715 | 13 | 180 | 0.0 | 0.0 | 0.00 | 0.30 | 0.00 | 91 | 1062.6 |
| 20260902044602 | 13 | 180 | 0.0 | 0.0 | 0.00 | 0.30 | 0.00 | 91 | 1062.5 |
| 20260902044441 | 13 | 202 | 0.0 | 0.0 | 0.00 | 0.30 | 0.00 | 91 | 1062.5 |
| 20260902044328 | 13 | 157 | 0.0 | 0.0 | 0.00 | 0.30 | 0.00 | 91 | 1062.7 |
| 20260902044223 | 13 | 157 | 0.0 | 0.0 | 0.00 | 0.30 | 0.00 | 91 | 1062.6 |
| 20260902044119 | 13 | 157 | 0.0 | 0.0 | 0.00 | 0.30 | 0.00 | 91 | 1062.6 |
| 20260902044013 | 13 | 157 | 0.0 | 0.0 | 0.00 | 0.30 | 0.00 | 91 | 1062.6 |
| 20260902043908 | 13 | 180 | 0.0 | 0.0 | 0.00 | 0.30 | 0.00 | 91 | 1062.6 |
| 20260902043757 | 13 | 180 | 3.2 | 0.0 | 0.00 | 0.30 | 0.00 | 91 | 1062.7 |
| 20260902043650 | 13 | 180 | 0.0 | 0.0 | 0.00 | 0.30 | 0.00 | 91 | 1062.6 |
| 20260902043537 | 13 | 180 | 6.4 | 0.0 | 0.00 | 0.30 | 0.00 | 91 | 1062.7 |
| 20260902043426 | 13 | 180 | 0.0 | 0.0 | 0.00 | 0.30 | 0.00 | 91 | 1062.7 |
| 20260902043318 | 13 | 157 | 6.4 | 0.0 | 0.00 | 0.30 | 0.00 | 91 | 1062.7 |
| 20260902043157 | 13 | 180 | 6.4 | 0.0 | 0.00 | 0.30 | 0.00 | 91 | 1062.6 |
| 20260902043038 | 13 | 180 | 6.4 | 0.0 | 0.00 | 0.30 | 0.00 | 91 | 1062.6 |
| 20260902042930 | 13 | 180 | 0.0 | 0.0 | 0.00 | 0.30 | 0.00 | 91 | 1062.8 |
| 20260902042754 | 13 | 180 | 8.0 | 0.0 | 0.00 | 0.30 | 0.00 | 91 | 1062.7 |
| 20260902042641 | 13 | 157 | 6.4 | 0.0 | 0.00 | 0.30 | 0.00 | 91 | 1062.7 |
| 20260902042519 | 13 | 157 | 0.0 | 0.0 | 0.00 | 0.30 | 0.00 | 92 | 1062.7 |
| 20260902042406 | 13 | 157 | 0.0 | 0.0 | 0.00 | 0.30 | 0.00 | 91 | 1062.7 |
| 20260902042244 | 13 | 157 | 0.0 | 0.0 | 0.00 | 0.30 | 0.00 | 92 | 1062.7 |
| 20260902042126 | 13 | 157 | 0.0 | 0.0 | 0.00 | 0.30 | 0.00 | 92 | 1062.7 |
| 20260902042019 | 13 | 157 | 9.7 | 0.0 | 0.00 | 0.30 | 0.00 | 92 | 1062.7 |
| 20260902041857 | 13 | 202 | 0.0 | 0.0 | 0.00 | 0.30 | 0.00 | 91 | 1062.7 |
| 20260902041736 | 13 | 202 | 0.0 | 0.0 | 0.00 | 0.30 | 0.00 | 92 | 1062.8 |
| 20260902041623 | 13 | 180 | 8.0 | 0.0 | 0.00 | 0.30 | 0.00 | 92 | 1062.7 |
| 20260902041518 | 13 | 180 | 6.4 | 0.0 | 0.00 | 0.30 | 0.00 | 92 | 1062.7 |
| 20260902041356 | 13 | 157 | 9.7 | 0.0 | 0.00 | 0.30 | 0.00 | 92 | 1062.7 |
| 20260902041246 | 13 | 135 | 0.0 | 0.0 | 0.00 | 0.30 | 0.00 | 92 | 1062.7 |
| 20260902041138 | 13 | 202 | 3.2 | 0.0 | 0.00 | 0.30 | 0.00 | 92 | 1062.7 |
| 20260902041026 | 13 | 157 | 9.7 | 0.0 | 0.00 | 0.30 | 0.00 | 92 | 1062.7 |
| 20260902040921 | 13 | 202 | 3.2 | 0.0 | 0.00 | 0.30 | 0.00 | 92 | 1062.8 |
| 20260902040815 | 13 | 202 | 6.4 | 0.0 | 0.00 | 0.30 | 0.00 | 92 | 1062.8 |
| 20260902040703 | 13 | 157 | 6.4 | 0.0 | 0.00 | 0.30 | 0.00 | 92 | 1062.8 |
| 20260902040551 | 13 | 157 | 0.0 | 0.0 | 0.00 | 0.30 | 0.00 | 92 | 1062.8 |
| 20260902040424 | 13 | 157 | 6.4 | 0.0 | 0.00 | 0.30 | 0.00 | 92 | 1062.8 |
| 20260902040310 | 13 | 202 | 9.7 | 0.0 | 0.00 | 0.30 | 0.00 | 92 | 1062.9 |
| 20260902040156 | 13 | 180 | 8.0 | 0.0 | 0.00 | 0.30 | 0.00 | 92 | 1062.8 |
| 20260902040041 | 13 | 202 | 6.4 | 0.0 | 0.00 | 0.30 | 0.00 | 92 | 1062.8 |
| 20260902035935 | 13 | 202 | 9.7 | 0.0 | 0.00 | 0.30 | 0.00 | 92 | 1062.8 |
| 20260902035815 | 13 | 157 | 8.0 | 0.0 | 0.00 | 0.30 | 0.00 | 92 | 1062.8 |
| 20260902035710 | 13 | 202 | 1.6 | 0.0 | 0.00 | 0.30 | 0.00 | 92 | 1062.9 |
| 20260902035605 | 13 | 157 | 0.0 | 0.0 | 0.00 | 0.30 | 0.00 | 92 | 1062.8 |
| 20260902035500 | 13 | 157 | 4.8 | 0.0 | 0.00 | 0.30 | 0.00 | 92 | 1062.9 |
| 20260902035346 | 13 | 180 | 9.7 | 0.0 | 0.00 | 0.30 | 0.00 | 92 | 1062.9 |
| 20260902035233 | 13 | 180 | 6.4 | 0.0 | 0.00 | 0.30 | 0.00 | 92 | 1062.9 |
| 20260902035128 | 13 | 202 | 0.0 | 0.0 | 0.00 | 0.30 | 0.00 | 92 | 1062.9 |
| 20260902035014 | 13 | 157 | 0.0 | 0.0 | 0.00 | 0.30 | 0.00 | 92 | 1062.9 |
| 20260902034853 | 13 | 157 | 6.4 | 0.0 | 0.00 | 0.30 | 0.00 | 92 | 1062.9 |
| 20260902034741 | 13 | 202 | 0.0 | 0.0 | 0.00 | 0.30 | 0.00 | 92 | 1062.9 |
| 20260902034635 | 13 | 157 | 3.2 | 0.0 | 0.00 | 0.30 | 0.00 | 92 | 1062.9 |
| 20260902034515 | 13 | 157 | 0.0 | 0.0 | 0.00 | 0.30 | 0.00 | 92 | 1062.9 |
| 20260902034409 | 13 | 180 | 0.0 | 0.0 | 0.00 | 0.30 | 0.00 | 92 | 1062.9 |
| 20260902034256 | 13 | 202 | 8.0 | 0.0 | 0.00 | 0.30 | 0.00 | 92 | 1062.9 |
| 20260902034143 | 13 | 180 | 4.8 | 0.0 | 0.00 | 0.30 | 0.00 | 92 | 1062.9 |
| 20260902034032 | 13 | 225 | 6.4 | 0.0 | 0.00 | 0.30 | 0.00 | 92 | 1063.0 |
| 20260902033925 | 13 | 180 | 6.4 | 0.0 | 0.00 | 0.30 | 0.00 | 92 | 1062.9 |
| 20260902033812 | 13 | 180 | 0.0 | 0.0 | 0.00 | 0.30 | 0.00 | 92 | 1063.0 |
| 20260902033708 | 13 | 180 | 0.0 | 0.0 | 0.00 | 0.30 | 0.00 | 92 | 1063.0 |
| 20260902033602 | 13 | 202 | 3.2 | 0.0 | 0.00 | 0.30 | 0.00 | 92 | 1062.9 |
| 20260902033448 | 13 | 225 | 4.8 | 0.0 | 0.00 | 0.30 | 0.00 | 92 | 1063.0 |
| 20260902033336 | 13 | 180 | 0.0 | 0.0 | 0.00 | 0.30 | 0.00 | 92 | 1063.0 |
| 20260902033230 | 13 | 202 | 6.4 | 0.0 | 0.00 | 0.30 | 0.00 | 92 | 1063.0 |
| 20260902033119 | 13 | 180 | 3.2 | 0.0 | 0.00 | 0.30 | 0.00 | 92 | 1063.0 |
| 20260902033013 | 13 | 202 | 6.4 | 0.0 | 0.00 | 0.30 | 0.00 | 92 | 1063.0 |
| 20260902032907 | 13 | 202 | 0.0 | 0.0 | 0.00 | 0.30 | 0.00 | 92 | 1063.0 |
| 20260902032755 | 13 | 157 | 6.4 | 0.0 | 0.00 | 0.30 | 0.00 | 92 | 1063.0 |
| 20260902032642 | 13 | 225 | 6.4 | 0.0 | 0.00 | 0.30 | 0.00 | 92 | 1063.0 |
| 20260902032536 | 13 | 202 | 9.7 | 0.0 | 0.00 | 0.30 | 0.00 | 92 | 1063.0 |
| 20260902032423 | 13 | 247 | 4.8 | 0.0 | 0.00 | 0.30 | 0.00 | 92 | 1063.0 |
| 20260902032310 | 13 | 202 | 9.7 | 0.0 | 0.00 | 0.30 | 0.00 | 92 | 1063.0 |
| 20260902032149 | 13 | 202 | 9.7 | 0.0 | 0.00 | 0.30 | 0.00 | 92 | 1063.0 |
| 20260902032044 | 13 | 180 | 8.0 | 0.0 | 0.00 | 0.30 | 0.00 | 92 | 1063.1 |
| 20260902031931 | 13 | 157 | 0.0 | 0.0 | 0.00 | 0.30 | 0.00 | 92 | 1063.1 |
| 20260902031825 | 13 | 202 | 4.8 | 0.0 | 0.00 | 0.30 | 0.00 | 92 | 1063.1 |
| 20260902031712 | 13 | 180 | 0.0 | 0.0 | 0.00 | 0.30 | 0.00 | 92 | 1063.1 |
| 20260902031559 | 13 | 180 | 8.0 | 0.0 | 0.00 | 0.30 | 0.00 | 92 | 1063.1 |
| 20260902031447 | 13 | 157 | 0.0 | 0.0 | 0.00 | 0.30 | 0.00 | 92 | 1063.1 |
| 20260902031332 | 13 | 180 | 0.0 | 0.0 | 0.00 | 0.30 | 0.00 | 92 | 1063.1 |
| 20260902031211 | 13 | 157 | 6.4 | 0.0 | 0.00 | 0.30 | 0.00 | 92 | 1063.1 |
| 20260902031101 | 13 | 202 | 6.4 | 0.0 | 0.00 | 0.30 | 0.00 | 92 | 1063.1 |
| 20260902030954 | 13 | 225 | 3.2 | 0.0 | 0.00 | 0.30 | 0.00 | 92 | 1063.1 |
| 20260902030841 | 13 | 202 | 0.0 | 0.0 | 0.00 | 0.30 | 0.00 | 92 | 1063.1 |
| 20260902030737 | 13 | 180 | 0.0 | 0.0 | 0.00 | 0.30 | 0.00 | 92 | 1063.1 |
| 20260902030631 | 13 | 225 | 9.7 | 0.0 | 0.00 | 0.30 | 0.00 | 92 | 1063.2 |
| 20260902030526 | 13 | 202 | 8.0 | 0.0 | 0.00 | 0.30 | 0.00 | 92 | 1063.2 |
| 20260902030421 | 13 | 157 | 8.0 | 0.0 | 0.00 | 0.30 | 0.00 | 92 | 1063.2 |
| 20260902030316 | 13 | 202 | 0.0 | 0.0 | 0.00 | 0.30 | 0.00 | 92 | 1063.2 |
| 20260902030211 | 13 | 202 | 9.7 | 0.0 | 0.00 | 0.30 | 0.00 | 92 | 1063.2 |
| 20260902030057 | 13 | 202 | 0.0 | 0.0 | 0.00 | 0.30 | 0.00 | 92 | 1063.2 |
| 20260902025946 | 13 | 202 | 6.4 | 0.0 | 0.00 | 0.30 | 0.00 | 92 | 1063.2 |
| 20260902025831 | 13 | 180 | 1.6 | 0.0 | 0.00 | 0.30 | 0.00 | 92 | 1063.2 |
| 20260902025718 | 13 | 157 | 8.0 | 0.0 | 0.00 | 0.30 | 0.00 | 92 | 1063.2 |
| 20260902025613 | 13 | 180 | 8.0 | 0.0 | 0.00 | 0.30 | 0.00 | 92 | 1063.3 |
| 20260902025500 | 13 | 180 | 0.0 | 0.0 | 0.00 | 0.30 | 0.00 | 92 | 1063.3 |
| 20260902025341 | 13 | 202 | 0.0 | 0.0 | 0.00 | 0.30 | 0.00 | 92 | 1063.2 |
| 20260902025234 | 13 | 180 | 0.0 | 0.0 | 0.00 | 0.30 | 0.00 | 92 | 1063.2 |
| 20260902025121 | 13 | 157 | 6.4 | 0.0 | 0.00 | 0.30 | 0.00 | 92 | 1063.2 |
| 20260902025017 | 13 | 202 | 6.4 | 0.0 | 0.00 | 0.30 | 0.00 | 92 | 1063.2 |
| 20260902024902 | 13 | 180 | 8.0 | 0.0 | 0.00 | 0.30 | 0.00 | 92 | 1063.2 |
| 20260902024742 | 13 | 202 | 6.4 | 0.0 | 0.00 | 0.30 | 0.00 | 92 | 1063.3 |
| 20260902024636 | 13 | 157 | 0.0 | 0.0 | 0.00 | 0.30 | 0.00 | 92 | 1063.2 |
| 20260902024523 | 13 | 157 | 8.0 | 0.0 | 0.00 | 0.30 | 0.00 | 92 | 1063.2 |
| 20260902024419 | 13 | 180 | 0.0 | 0.0 | 0.00 | 0.30 | 0.00 | 92 | 1063.2 |
| 20260902024313 | 13 | 180 | 0.0 | 0.0 | 0.00 | 0.30 | 0.00 | 92 | 1063.2 |
| 20260902024208 | 13 | 157 | 0.0 | 0.0 | 0.00 | 0.30 | 0.00 | 92 | 1063.2 |
| 20260902024057 | 13 | 202 | 0.0 | 0.0 | 0.00 | 0.30 | 0.00 | 92 | 1063.3 |
| 20260902023950 | 13 | 180 | 0.0 | 0.0 | 0.00 | 0.30 | 0.00 | 92 | 1063.3 |
| 20260902023837 | 13 | 180 | 0.0 | 0.0 | 0.00 | 0.30 | 0.00 | 92 | 1063.3 |
| 20260902023724 | 13 | 180 | 0.0 | 0.0 | 0.00 | 0.30 | 0.00 | 92 | 1063.2 |
| 20260902023611 | 13 | 157 | 0.0 | 0.0 | 0.00 | 0.30 | 0.00 | 92 | 1063.2 |
| 20260902023459 | 13 | 157 | 0.0 | 0.0 | 0.00 | 0.30 | 0.00 | 92 | 1063.2 |
| 20260902023344 | 13 | 180 | 4.8 | 0.0 | 0.00 | 0.30 | 0.00 | 92 | 1063.2 |
| 20260902023233 | 13 | 180 | 0.0 | 0.0 | 0.00 | 0.30 | 0.00 | 92 | 1063.2 |
| 20260902023127 | 13 | 180 | 0.0 | 0.0 | 0.00 | 0.30 | 0.00 | 92 | 1063.3 |
| 20260902023020 | 13 | 180 | 0.0 | 0.0 | 0.00 | 0.30 | 0.00 | 92 | 1063.2 |
| 20260902022901 | 13 | 180 | 0.0 | 0.0 | 0.00 | 0.30 | 0.00 | 92 | 1063.2 |
| 20260902022755 | 13 | 180 | 0.0 | 0.0 | 0.00 | 0.30 | 0.00 | 92 | 1063.2 |
| 20260902022650 | 13 | 180 | 0.0 | 0.0 | 0.00 | 0.30 | 0.00 | 92 | 1063.2 |
| 20260902022530 | 13 | 180 | 3.2 | 0.0 | 0.00 | 0.30 | 0.00 | 92 | 1063.2 |
| 20260902022424 | 13 | 180 | 0.0 | 0.0 | 0.00 | 0.30 | 0.00 | 92 | 1063.2 |
| 20260902022311 | 13 | 180 | 4.8 | 0.0 | 0.00 | 0.30 | 0.00 | 92 | 1063.3 |
| 20260902022206 | 13 | 180 | 0.0 | 0.0 | 0.00 | 0.30 | 0.00 | 92 | 1063.2 |
| 20260902022101 | 13 | 180 | 0.0 | 0.0 | 0.00 | 0.30 | 0.00 | 92 | 1063.2 |
| 20260902021940 | 13 | 202 | 3.2 | 0.0 | 0.00 | 0.30 | 0.00 | 92 | 1063.2 |
| 20260902021837 | 13 | 202 | 0.0 | 0.0 | 0.00 | 0.30 | 0.00 | 92 | 1063.2 |
| 20260902021729 | 13 | 202 | 0.0 | 0.0 | 0.00 | 0.30 | 0.00 | 92 | 1063.3 |
| 20260902021616 | 13 | 202 | 0.0 | 0.0 | 0.00 | 0.30 | 0.00 | 92 | 1063.3 |
| 20260902021454 | 13 | 202 | 0.0 | 0.0 | 0.00 | 0.30 | 0.00 | 92 | 1063.3 |
| 20260902021334 | 13 | 225 | 0.0 | 0.0 | 0.00 | 0.30 | 0.00 | 92 | 1063.3 |
| 20260902021220 | 13 | 180 | 6.4 | 0.0 | 0.00 | 0.30 | 0.00 | 92 | 1063.3 |
| 20260902021100 | 13 | 180 | 0.0 | 0.0 | 0.00 | 0.30 | 0.00 | 92 | 1063.3 |
| 20260902020946 | 13 | 202 | 0.0 | 0.0 | 0.00 | 0.30 | 0.00 | 92 | 1063.4 |
| 20260902020827 | 13 | 180 | 0.0 | 0.0 | 0.00 | 0.30 | 0.00 | 92 | 1063.3 |
| 20260902020712 | 13 | 202 | 0.0 | 0.0 | 0.00 | 0.30 | 0.00 | 92 | 1063.3 |
| 20260902020550 | 13 | 202 | 0.0 | 0.0 | 0.00 | 0.30 | 0.00 | 92 | 1063.3 |
| 20260902020430 | 13 | 202 | 0.0 | 0.0 | 0.00 | 0.30 | 0.00 | 92 | 1063.3 |
| 20260902020309 | 13 | 180 | 6.4 | 0.0 | 0.00 | 0.30 | 0.00 | 92 | 1063.3 |
| 20260902020155 | 13 | 202 | 0.0 | 0.0 | 0.00 | 0.30 | 0.00 | 92 | 1063.3 |
| 20260902020034 | 13 | 202 | 0.0 | 0.0 | 0.00 | 0.30 | 0.00 | 92 | 1063.2 |
| 20260902015921 | 13 | 202 | 3.2 | 0.0 | 0.00 | 0.30 | 0.00 | 92 | 1063.3 |
| 20260902015808 | 13 | 202 | 6.4 | 0.0 | 0.00 | 0.30 | 0.00 | 92 | 1063.2 |
| 20260902015646 | 13 | 180 | 0.0 | 0.0 | 0.00 | 0.30 | 0.00 | 92 | 1063.2 |
| 20260902015528 | 13 | 180 | 9.7 | 0.0 | 0.00 | 0.30 | 0.00 | 92 | 1063.2 |
| 20260902015422 | 13 | 202 | 0.0 | 0.0 | 0.00 | 0.30 | 0.00 | 92 | 1063.3 |
| 20260902015315 | 13 | 180 | 0.0 | 0.0 | 0.00 | 0.30 | 0.00 | 92 | 1063.3 |
| 20260902015156 | 13 | 180 | 0.0 | 0.0 | 0.00 | 0.30 | 0.00 | 92 | 1063.3 |
| 20260902015049 | 13 | 180 | 0.0 | 0.0 | 0.00 | 0.30 | 0.00 | 92 | 1063.3 |
| 20260902014930 | 13 | 202 | 0.0 | 0.0 | 0.00 | 0.30 | 0.00 | 92 | 1063.3 |
| 20260902014825 | 13 | 225 | 0.0 | 0.0 | 0.00 | 0.30 | 0.00 | 92 | 1063.3 |
| 20260902014720 | 13 | 180 | 0.0 | 0.0 | 0.00 | 0.30 | 0.00 | 92 | 1063.3 |
| 20260902014612 | 13 | 202 | 3.2 | 0.0 | 0.00 | 0.30 | 0.00 | 92 | 1063.2 |
| 20260902014453 | 13 | 180 | 3.2 | 0.0 | 0.00 | 0.30 | 0.00 | 92 | 1063.3 |
| 20260902014346 | 13 | 180 | 4.8 | 0.0 | 0.00 | 0.30 | 0.00 | 92 | 1063.3 |
| 20260902014234 | 13 | 225 | 0.0 | 0.0 | 0.00 | 0.30 | 0.00 | 92 | 1063.3 |
| 20260902014112 | 13 | 180 | 0.0 | 0.0 | 0.00 | 0.30 | 0.00 | 92 | 1063.3 |
| 20260902013959 | 13 | 180 | 0.0 | 0.0 | 0.00 | 0.30 | 0.00 | 92 | 1063.2 |
| 20260902013846 | 13 | 202 | 6.4 | 0.0 | 0.00 | 0.30 | 0.00 | 92 | 1063.3 |
| 20260902013734 | 13 | 225 | 4.8 | 0.0 | 0.00 | 0.30 | 0.00 | 92 | 1063.3 |
| 20260902013612 | 13 | 202 | 0.0 | 0.0 | 0.00 | 0.30 | 0.00 | 92 | 1063.3 |
| 20260902013458 | 13 | 202 | 0.0 | 0.0 | 0.00 | 0.30 | 0.00 | 92 | 1063.3 |
| 20260902013345 | 13 | 202 | 0.0 | 0.0 | 0.00 | 0.30 | 0.00 | 92 | 1063.3 |
| 20260902013232 | 13 | 202 | 0.0 | 0.0 | 0.00 | 0.30 | 0.00 | 92 | 1063.3 |
| 20260902013120 | 13 | 202 | 0.0 | 0.0 | 0.00 | 0.30 | 0.00 | 92 | 1063.3 |
| 20260902013015 | 13 | 202 | 0.0 | 0.0 | 0.00 | 0.30 | 0.00 | 92 | 1063.3 |
| 20260902012908 | 13 | 180 | 0.0 | 0.0 | 0.00 | 0.30 | 0.00 | 92 | 1063.1 |
| 20260902012748 | 13 | 202 | 0.0 | 0.0 | 0.00 | 0.30 | 0.00 | 92 | 1063.2 |
| 20260902012627 | 13 | 180 | 0.0 | 0.0 | 0.00 | 0.30 | 0.00 | 92 | 1063.3 |
| 20260902012513 | 13 | 180 | 0.0 | 0.0 | 0.00 | 0.30 | 0.00 | 92 | 1063.3 |
| 20260902012346 | 13 | 180 | 0.0 | 0.0 | 0.00 | 0.30 | 0.00 | 92 | 1063.2 |
| 20260902012239 | 13 | 180 | 0.0 | 0.0 | 0.00 | 0.30 | 0.00 | 92 | 1063.3 |
| 20260902012126 | 13 | 180 | 0.0 | 0.0 | 0.00 | 0.30 | 0.00 | 91 | 1063.3 |
| 20260902012005 | 13 | 202 | 0.0 | 0.0 | 0.00 | 0.30 | 0.00 | 92 | 1063.3 |
| 20260902011852 | 13 | 202 | 0.0 | 0.0 | 0.00 | 0.30 | 0.00 | 91 | 1063.3 |
| 20260902011730 | 13 | 180 | 3.2 | 0.0 | 0.00 | 0.30 | 0.00 | 91 | 1063.3 |
| 20260902011610 | 13 | 202 | 0.0 | 0.0 | 0.00 | 0.30 | 0.00 | 91 | 1063.3 |
| 20260902011505 | 13 | 202 | 3.2 | 0.0 | 0.00 | 0.30 | 0.00 | 91 | 1063.3 |
| 20260902011359 | 13 | 180 | 6.4 | 0.0 | 0.00 | 0.30 | 0.00 | 91 | 1063.3 |
| 20260902011246 | 13 | 180 | 0.0 | 0.0 | 0.00 | 0.30 | 0.00 | 91 | 1063.3 |
| 20260902011126 | 13 | 180 | 0.0 | 0.0 | 0.00 | 0.30 | 0.00 | 91 | 1063.3 |
| 20260902011006 | 13 | 180 | 0.0 | 0.0 | 0.00 | 0.30 | 0.00 | 91 | 1063.3 |
| 20260902010858 | 13 | 202 | 8.0 | 0.0 | 0.00 | 0.30 | 0.00 | 91 | 1063.3 |
| 20260902010745 | 13 | 202 | 0.0 | 0.0 | 0.00 | 0.30 | 0.00 | 91 | 1063.3 |
| 20260902010616 | 13 | 202 | 4.8 | 0.0 | 0.00 | 0.30 | 0.00 | 91 | 1063.4 |
| 20260902010447 | 13 | 202 | 0.0 | 0.0 | 0.00 | 0.30 | 0.00 | 91 | 1063.3 |
| 20260902010325 | 13 | 202 | 3.2 | 0.0 | 0.00 | 0.30 | 0.00 | 91 | 1063.4 |
| 20260902005954 | 12 | 202 | 0.0 | 0.0 | 0.00 | 0.30 | 0.00 | 91 | 1063.4 |
| 20260902005840 | 12 | 202 | 0.0 | 0.0 | 0.00 | 0.30 | 0.00 | 91 | 1063.4 |
| 20260902005721 | 12 | 225 | 0.0 | 0.0 | 0.00 | 0.30 | 0.00 | 91 | 1063.4 |
| 20260902005614 | 12 | 180 | 0.0 | 0.0 | 0.00 | 0.30 | 0.00 | 91 | 1063.4 |
| 20260902005454 | 12 | 202 | 0.0 | 0.0 | 0.00 | 0.30 | 0.00 | 91 | 1063.4 |
| 20260902005340 | 12 | 202 | 0.0 | 0.0 | 0.00 | 0.30 | 0.00 | 91 | 1063.4 |
| 20260902005210 | 12 | 180 | 0.0 | 0.0 | 0.00 | 0.30 | 0.00 | 91 | 1063.4 |
| 20260902005044 | 12 | 180 | 0.0 | 0.0 | 0.00 | 0.30 | 0.00 | 91 | 1063.4 |
| 20260902004936 | 12 | 202 | 0.0 | 0.0 | 0.00 | 0.30 | 0.00 | 91 | 1063.4 |
| 20260902004807 | 12 | 180 | 0.0 | 0.0 | 0.00 | 0.30 | 0.00 | 91 | 1063.4 |
| 20260902004653 | 12 | 180 | 0.0 | 0.0 | 0.00 | 0.30 | 0.00 | 91 | 1063.4 |
| 20260902004541 | 12 | 202 | 6.4 | 0.0 | 0.00 | 0.30 | 0.00 | 91 | 1063.4 |
| 20260902004427 | 12 | 180 | 0.0 | 0.0 | 0.00 | 0.30 | 0.00 | 91 | 1063.3 |
| 20260902004258 | 12 | 180 | 0.0 | 0.0 | 0.00 | 0.30 | 0.00 | 90 | 1063.3 |
| 20260902004152 | 12 | 202 | 0.0 | 0.0 | 0.00 | 0.30 | 0.00 | 90 | 1063.4 |
| 20260902004030 | 12 | 225 | 0.0 | 0.0 | 0.00 | 0.30 | 0.00 | 90 | 1063.4 |
| 20260902003915 | 12 | 225 | 0.0 | 0.0 | 0.00 | 0.30 | 0.00 | 90 | 1063.4 |
| 20260902003801 | 12 | 225 | 0.0 | 0.0 | 0.00 | 0.30 | 0.00 | 90 | 1063.4 |
| 20260902003655 | 12 | 225 | 0.0 | 0.0 | 0.00 | 0.30 | 0.00 | 90 | 1063.5 |
| 20260902003542 | 12 | 225 | 0.0 | 0.0 | 0.00 | 0.30 | 0.00 | 90 | 1063.4 |
| 20260902003437 | 12 | 225 | 0.0 | 0.0 | 0.00 | 0.30 | 0.00 | 90 | 1063.4 |
| 20260902003320 | 12 | 225 | 0.0 | 0.0 | 0.00 | 0.30 | 0.00 | 90 | 1063.4 |
| 20260902003209 | 12 | 225 | 0.0 | 0.0 | 0.00 | 0.30 | 0.00 | 90 | 1063.5 |
| 20260902003100 | 12 | 225 | 0.0 | 0.0 | 0.00 | 0.30 | 0.00 | 90 | 1063.4 |
| 20260902002946 | 12 | 225 | 0.0 | 0.0 | 0.00 | 0.30 | 0.00 | 90 | 1063.5 |
| 20260902002834 | 12 | 225 | 0.0 | 0.0 | 0.00 | 0.30 | 0.00 | 90 | 1063.4 |
| 20260902002725 | 12 | 225 | 0.0 | 0.0 | 0.00 | 0.30 | 0.00 | 90 | 1063.4 |
| 20260902002606 | 12 | 225 | 0.0 | 0.0 | 0.00 | 0.30 | 0.00 | 90 | 1063.4 |
| 20260902002458 | 12 | 247 | 0.0 | 0.0 | 0.00 | 0.30 | 0.00 | 90 | 1063.4 |
| 20260902002353 | 12 | 247 | 0.0 | 0.0 | 0.00 | 0.30 | 0.00 | 90 | 1063.5 |
| 20260902002246 | 12 | 247 | 0.0 | 0.0 | 0.00 | 0.30 | 0.00 | 90 | 1063.4 |
| 20260902002131 | 12 | 247 | 0.0 | 0.0 | 0.00 | 0.30 | 0.00 | 90 | 1063.4 |
| 20260902002025 | 12 | 225 | 0.0 | 0.0 | 0.00 | 0.30 | 0.00 | 90 | 1063.5 |
| 20260902001910 | 12 | 202 | 0.0 | 0.0 | 0.00 | 0.30 | 0.00 | 90 | 1063.4 |
| 20260902001749 | 12 | 202 | 0.0 | 0.0 | 0.00 | 0.30 | 0.00 | 90 | 1063.4 |
| 20260902001626 | 12 | 202 | 0.0 | 0.0 | 0.00 | 0.30 | 0.00 | 90 | 1063.4 |
| 20260902001507 | 12 | 202 | 0.0 | 0.0 | 0.00 | 0.30 | 0.00 | 90 | 1063.4 |
| 20260902001403 | 12 | 202 | 0.0 | 0.0 | 0.00 | 0.30 | 0.00 | 90 | 1063.4 |
| 20260902001256 | 12 | 180 | 0.0 | 0.0 | 0.00 | 0.30 | 0.00 | 90 | 1063.4 |
| 20260902001145 | 12 | 180 | 0.0 | 0.0 | 0.00 | 0.30 | 0.00 | 90 | 1063.4 |
| 20260902001038 | 12 | 180 | 0.0 | 0.0 | 0.00 | 0.30 | 0.00 | 90 | 1063.4 |
| 20260902000920 | 12 | 202 | 0.0 | 0.0 | 0.00 | 0.30 | 0.00 | 90 | 1063.4 |
| 20260902000812 | 12 | 180 | 0.0 | 0.0 | 0.00 | 0.30 | 0.00 | 90 | 1063.4 |
| 20260902000643 | 12 | 180 | 0.0 | 0.0 | 0.00 | 0.30 | 0.00 | 90 | 1063.4 |
| 20260902000524 | 12 | 202 | 0.0 | 0.0 | 0.00 | 0.30 | 0.00 | 90 | 1063.5 |
| 20260902000416 | 13 | 202 | 0.0 | 0.0 | 0.00 | 0.30 | 0.00 | 90 | 1063.4 |
| 20260902000304 | 13 | 202 | 0.0 | 0.0 | 0.00 | 0.30 | 0.00 | 90 | 1063.4 |
| 20260902000147 | 13 | 202 | 0.0 | 0.0 | 0.00 | 0.30 | 0.00 | 90 | 1063.4 |
| 20260902000030 | 13 | 180 | 0.0 | 0.0 | 0.00 | 0.30 | 0.00 | 90 | 1063.5 |
| 20260901235921 | 13 | 180 | 0.0 | 0.0 | 0.00 | 0.30 | 0.00 | 90 | 1063.5 |
| 20260901235806 | 13 | 180 | 0.0 | 0.0 | 0.00 | 0.30 | 0.00 | 90 | 1063.5 |
| 20260901235636 | 13 | 180 | 0.0 | 0.0 | 0.00 | 0.30 | 0.00 | 90 | 1063.5 |
| 20260901235522 | 13 | 180 | 0.0 | 0.0 | 0.00 | 0.30 | 0.00 | 90 | 1063.4 |
| 20260901235416 | 13 | 180 | 0.0 | 0.0 | 0.00 | 0.30 | 0.00 | 90 | 1063.5 |
| 20260901235309 | 13 | 202 | 6.4 | 0.0 | 0.00 | 0.30 | 0.00 | 90 | 1063.5 |
| 20260901235157 | 13 | 180 | 0.0 | 0.0 | 0.00 | 0.30 | 0.00 | 90 | 1063.5 |
| 20260901235043 | 13 | 180 | 3.2 | 0.0 | 0.00 | 0.30 | 0.00 | 90 | 1063.4 |
| 20260901234935 | 13 | 202 | 0.0 | 0.0 | 0.00 | 0.30 | 0.00 | 90 | 1063.5 |
| 20260901234813 | 13 | 202 | 0.0 | 0.0 | 0.00 | 0.30 | 0.00 | 90 | 1063.5 |
| 20260901234706 | 13 | 180 | 0.0 | 0.0 | 0.00 | 0.30 | 0.00 | 89 | 1063.5 |
| 20260901234536 | 13 | 202 | 0.0 | 0.0 | 0.00 | 0.30 | 0.00 | 89 | 1063.5 |
| 20260901234422 | 13 | 180 | 0.0 | 0.0 | 0.00 | 0.30 | 0.00 | 89 | 1063.5 |
| 20260901234316 | 13 | 202 | 0.0 | 0.0 | 0.00 | 0.30 | 0.00 | 89 | 1063.5 |
| 20260901234155 | 13 | 202 | 0.0 | 0.0 | 0.00 | 0.30 | 0.00 | 89 | 1063.4 |
| 20260901234043 | 13 | 202 | 0.0 | 0.0 | 0.00 | 0.30 | 0.00 | 89 | 1063.4 |
| 20260901233929 | 13 | 202 | 0.0 | 0.0 | 0.00 | 0.30 | 0.00 | 89 | 1063.4 |
| 20260901233817 | 13 | 202 | 0.0 | 0.0 | 0.00 | 0.30 | 0.00 | 89 | 1063.4 |
| 20260901233712 | 13 | 202 | 0.0 | 0.0 | 0.00 | 0.30 | 0.00 | 89 | 1063.3 |
| 20260901233607 | 13 | 202 | 0.0 | 0.0 | 0.00 | 0.30 | 0.00 | 89 | 1063.4 |
| 20260901233459 | 13 | 202 | 3.2 | 0.0 | 0.00 | 0.30 | 0.00 | 89 | 1063.4 |
| 20260901233339 | 13 | 202 | 8.0 | 0.0 | 0.00 | 0.30 | 0.00 | 89 | 1063.4 |
| 20260901233226 | 13 | 202 | 0.0 | 0.0 | 0.00 | 0.30 | 0.00 | 89 | 1063.5 |
| 20260901233113 | 13 | 202 | 0.0 | 0.0 | 0.00 | 0.30 | 0.00 | 89 | 1063.4 |